GEFSSE_con_prob3kmehi_006.txt.gz
EHI
0 0 1 5 7 7 4 3 2 1 0 0 0 0 0 0 2 6 7 4 1 0 0 0 0 0 0 0 0 0 0 0 0 0 0 0 0 0 0 0 0 0 0
1 0 1 3 5 4 2 1 1 0 0 0 0 0 0 0 1 2 3 2 0 0 0 0 0 0 0 0 0 0 0 0 0 0 0 0 0 0 0 0 0 0 0
1 0 0 1 1 1 0 0 0 0 0 0 0 0 0 0 0 0 0 0 0 0 0 0 0 0 0 0 0 0 0 0 0 0 0 0 0 0 0 0 0 0 0
1 0 0 0 0 0 0 0 0 0 0 0 0 0 0 0 0 2 2 1 0 0 0 0 0 0 0 0 0 0 0 0 0 0 0 0 0 0 0 0 0 0 0
0 0 0 0 0 1 4 4 2 1 2 5 6 4 2 1 1 4 5 2 0 0 0 0 0 0 0 0 0 0 0 0 0 0 0 0 0 0 0 0 0 0 0
0 0 0 0 1 5 14 17 12 9 16 27 28 19 9 2 1 2 4 2 0 0 0 0 0 0 0 0 0 0 0 0 0 0 0 0 0 0 0 1 3 6 7
0 0 0 1 3 9 24 33 27 25 40 57 56 38 16 4 0 0 1 0 0 0 0 0 0 0 0 0 0 0 0 0 0 0 0 0 0 0 0 2 6 10 13
0 0 2 5 9 14 25 33 31 32 45 57 56 38 15 2 0 0 0 0 0 0 0 0 0 0 0 0 0 0 0 0 0 0 0 0 0 0 0 1 3 6 7
0 1 6 12 13 13 15 17 17 18 23 28 29 20 7 1 0 0 0 0 0 0 0 0 0 0 0 0 0 0 0 0 0 0 0 0 0 0 0 0 0 0 0
1 2 8 13 11 6 5 4 4 4 4 6 7 5 1 0 0 0 0 0 0 0 0 0 0 0 0 0 0 0 0 0 0 0 0 0 0 0 0 0 0 0 0
2 2 4 6 4 1 0 1 1 1 0 1 1 0 0 0 0 0 0 0 0 0 0 0 0 0 0 0 0 0 0 0 0 0 0 0 0 0 0 0 0 0 0
2 1 0 0 0 0 0 0 0 0 0 0 0 0 0 0 0 0 0 0 0 0 0 0 0 0 0 0 0 0 0 0 0 0 0 0 0 0 0 0 0 0 0
2 1 0 0 0 0 0 0 0 0 0 0 0 0 0 0 0 0 0 0 0 0 0 0 0 0 0 0 0 0 0 0 0 0 0 0 0 0 0 0 0 0 0
2 2 2 1 0 0 0 0 0 0 0 0 0 0 0 0 0 0 0 0 0 0 0 0 0 0 0 0 0 0 0 0 0 0 0 0 0 0 0 0 0 0 0
9 7 5 3 1 0 0 0 0 0 0 0 0 0 0 0 0 0 0 0 0 0 0 0 0 0 0 0 0 0 0 0 0 0 0 0 0 0 0 0 0 0 0
16 12 9 7 3 1 0 0 0 0 0 0 0 0 0 0 0 0 0 0 0 0 0 0 0 0 0 0 0 0 0 0 0 0 0 0 0 0 0 0 0 0 0
17 15 14 12 6 1 0 0 0 0 0 0 0 0 0 0 0 0 0 0 0 0 0 0 0 0 0 0 0 0 0 0 0 0 0 0 0 0 0 0 0 0 0
14 14 15 13 6 1 0 0 0 0 0 0 0 0 0 0 0 0 0 0 0 0 0 0 0 0 0 0 0 0 0 0 0 0 0 0 0 0 0 0 0 1 1
10 11 11 9 5 1 0 0 0 0 0 0 0 0 0 0 0 0 0 0 0 0 0 0 0 0 0 0 0 0 0 0 0 0 0 0 0 0 0 0 0 1 1
6 5 5 4 2 0 0 0 0 0 0 0 0 0 0 0 0 0 0 0 0 0 0 0 0 0 0 0 0 0 0 0 0 0 0 0 0 0 0 0 0 0 1
2 2 1 1 0 0 0 0 0 0 0 0 0 0 0 0 0 0 0 0 0 0 0 0 0 0 0 0 0 0 0 0 0 0 0 0 0 0 0 0 0 0 0
0 0 0 0 0 0 0 0 0 0 0 0 0 0 0 0 0 0 0 0 0 0 0 0 0 0 0 0 0 0 0 0 0 0 0 0 0 0 0 0 0 0 0
0 0 0 0 0 0 0 0 0 0 0 0 0 0 0 0 0 0 0 0 0 0 0 0 0 0 0 0 0 0 0 0 0 0 0 0 0 0 0 0 0 0 0
0 0 0 0 0 0 0 0 0 0 0 0 0 0 0 0 0 0 0 0 0 0 0 0 0 0 0 0 0 0 0 0 0 0 0 0 0 0 0 0 0 0 0
0 0 0 0 0 0 0 0 0 0 0 0 0 0 0 0 0 0 0 0 0 0 0 0 0 0 0 0 0 0 0 0 0 0 0 0 0 0 0 0 0 0 0
0 0 0 0 0 0 0 0 0 0 0 0 0 0 0 0 0 0 0 0 0 0 0 0 0 0 0 0 0 0 0 0 0 0 0 0 0 0 0 0 0 0 0

GEFSSE_con_prob3kmehi_012.txt.gz
EHI
0 0 0 0 6 20 31 27 15 7 5 12 27 42 47 40 26 12 4 1 0 0 0 0 0 0 0 0 0 0 0 0 0 0 0 0 0 0 0 0 0 0 0
0 0 0 1 5 14 22 22 15 8 4 5 12 20 25 25 18 8 2 0 0 0 0 0 0 0 0 0 0 0 0 0 0 0 0 0 0 0 0 0 0 0 0
0 0 0 1 5 8 11 13 11 7 2 0 1 2 5 7 6 3 1 0 0 0 0 0 0 0 0 0 0 0 0 0 0 0 0 0 0 0 0 0 0 0 0
0 0 0 1 5 6 5 6 7 5 2 0 0 0 0 1 1 0 0 0 0 0 0 0 0 0 0 0 0 0 0 0 0 0 0 0 0 0 0 0 0 0 0
0 0 0 1 2 3 3 6 8 7 4 1 0 0 0 0 0 0 0 0 0 0 0 0 0 0 0 0 0 0 0 0 0 0 0 0 0 0 0 0 0 0 0
0 0 0 0 2 4 7 14 21 22 16 8 2 0 0 0 0 0 0 0 0 0 0 0 0 0 0 0 0 0 0 0 0 0 0 0 0 0 0 0 0 0 0
0 0 0 3 10 17 22 32 43 44 38 25 11 3 0 0 0 0 0 0 0 0 0 0 0 0 0 0 0 0 0 0 0 0 0 0 0 0 0 0 0 0 0
0 0 0 8 25 37 42 50 58 62 57 43 22 6 1 0 0 0 0 0 0 0 0 0 0 0 0 0 0 0 0 0 0 0 0 0 0 0 0 0 0 0 0
0 0 0 8 24 35 41 48 54 57 53 41 21 6 1 0 0 0 0 0 0 0 0 0 0 0 0 0 0 0 0 0 0 0 0 0 0 0 0 0 0 0 0
0 0 0 3 9 13 18 26 31 31 28 20 11 3 0 0 0 0 0 0 0 0 0 0 0 0 0 0 0 0 0 0 0 0 0 0 0 0 0 0 0 0 0
2 1 1 0 0 0 2 6 9 8 6 4 2 1 0 0 0 0 0 0 0 0 0 0 0 0 0 0 0 0 0 0 0 0 0 0 0 0 0 0 0 0 0
4 4 2 1 0 0 0 0 1 1 0 0 0 0 0 0 0 0 0 0 0 0 0 0 0 0 0 0 0 0 0 0 0 0 0 0 0 0 0 0 0 0 0
5 4 3 1 0 0 0 0 0 0 0 0 0 0 0 0 0 0 0 0 0 0 0 0 0 0 0 0 0 0 0 0 0 0 0 0 0 0 0 1 3 3 2
3 2 1 0 0 0 0 0 0 0 0 0 0 0 0 0 0 0 0 0 0 0 0 0 0 0 0 0 0 0 0 0 0 0 0 0 1 2 3 5 7 7 5
1 1 0 0 0 0 0 0 0 0 0 0 0 0 0 0 0 0 0 0 0 0 0 0 0 0 0 0 0 0 0 0 0 0 0 0 1 3 6 7 7 6 6
0 0 0 0 0 0 0 0 0 0 0 0 0 0 0 0 0 0 0 0 0 0 0 0 0 0 0 0 0 0 0 0 0 0 0 0 0 2 3 4 4 3 3
0 0 0 0 0 0 0 0 0 0 0 0 0 0 0 0 0 0 0 0 0 0 0 0 0 0 0 0 0 0 0 0 0 0 0 0 0 0 0 1 1 1 1
0 0 0 0 0 0 0 0 0 0 0 0 0 0 0 0 0 0 0 0 0 0 0 0 0 0 0 0 0 0 0 0 0 0 0 0 0 0 0 0 0 0 0
0 0 0 0 0 0 0 0 0 0 0 0 0 0 0 0 0 0 0 0 0 0 0 0 0 0 0 0 0 0 0 0 0 0 0 0 0 0 0 0 0 0 0
0 0 0 0 0 0 0 0 0 0 0 0 0 0 0 0 0 0 0 0 0 0 0 0 0 0 0 0 0 0 0 0 0 0 0 0 0 0 0 0 0 0 0
0 0 0 0 0 0 0 0 0 0 0 0 0 0 0 0 0 0 0 0 0 0 0 0 0 0 0 0 0 0 0 0 0 0 0 0 0 0 0 0 0 0 0
0 0 0 0 0 0 0 0 0 0 0 0 0 0 0 0 0 0 0 0 0 0 0 0 0 0 0 0 0 0 0 0 0 0 0 0 0 0 0 0 0 0 0
0 0 0 0 0 0 0 0 0 0 0 0 0 0 0 0 0 0 0 0 0 0 0 0 0 0 0 0 0 0 0 0 0 0 0 0 0 0 0 0 0 0 0
0 0 0 0 0 0 0 0 0 0 0 0 0 0 0 0 0 0 0 0 0 0 0 0 0 0 0 0 0 0 0 0 0 0 0 0 0 0 0 0 0 0 0
0 0 0 0 0 0 0 0 0 0 0 0 0 0 0 0 0 0 0 0 0 0 0 0 0 0 0 0 0 0 0 0 0 0 0 0 0 0 0 0 0 0 0
0 0 0 0 0 0 0 0 0 0 0 0 0 0 0 0 0 0 0 0 0 0 0 0 0 0 0 0 0 0 0 0 0 0 0 0 0 0 0 0 0 0 0

GEFSSE_con_prob3kmehi_018.txt.gz
EHI
0 5 12 8 2 0 1 4 17 42 67 78 79 74 65 55 43 26 10 2 0 0 0 0 0 0 0 0 0 0 0 0 0 0 0 0 0 0 0 0 0 0 0
0 5 10 9 3 0 0 3 12 30 51 63 67 64 56 45 32 17 6 1 0 0 0 0 0 0 0 0 0 0 0 0 0 0 0 0 0 0 0 0 0 0 0
1 3 7 10 6 1 0 1 6 15 26 35 40 40 34 24 14 5 1 0 0 0 0 0 1 1 1 0 0 0 0 0 0 0 0 0 0 0 0 0 0 0 0
0 1 5 11 9 3 0 0 2 6 9 13 16 16 12 7 2 0 0 0 0 0 0 1 2 2 2 1 0 0 0 0 0 0 0 0 0 0 0 0 0 0 0
0 0 4 8 8 4 1 0 0 2 3 4 5 4 3 1 0 0 0 0 0 1 1 1 3 3 2 1 0 0 0 0 0 0 0 1 3 3 2 1 1 0 0
0 0 1 3 3 2 1 0 0 0 1 1 1 1 1 0 0 0 0 0 1 2 2 2 2 2 1 1 0 0 0 0 0 0 0 4 10 10 4 1 1 0 0
0 0 0 0 0 1 1 2 3 2 1 0 0 0 0 0 0 0 0 0 1 2 2 1 1 1 0 0 0 0 0 0 0 0 2 7 14 11 4 1 1 0 0
0 0 0 0 0 1 4 7 9 8 4 2 1 1 1 1 0 0 0 1 2 2 1 0 0 0 0 0 0 0 0 0 0 1 2 6 9 6 2 0 0 0 0
0 0 0 0 0 1 5 10 13 12 8 5 4 3 3 1 0 0 0 1 2 2 1 0 0 0 0 0 0 0 0 0 0 1 1 2 2 1 0 0 0 0 0
0 0 0 0 0 1 3 7 9 9 7 5 4 3 2 1 0 0 1 1 3 2 1 0 0 0 0 0 0 0 0 0 0 0 0 0 0 0 0 0 0 0 0
0 0 0 0 0 0 2 3 4 4 4 2 1 1 1 0 0 0 1 2 2 2 1 0 0 0 0 0 0 0 0 0 0 0 0 0 0 0 0 0 0 0 0
0 0 0 0 0 0 1 1 1 1 1 0 0 0 0 0 0 0 1 1 1 1 0 0 0 0 0 0 0 0 0 0 0 0 0 0 0 0 0 0 0 0 0
0 0 0 0 0 0 0 0 0 0 0 0 0 0 0 0 0 0 0 0 0 0 0 0 0 0 0 0 0 0 0 0 0 0 0 0 0 0 0 0 0 0 0
0 0 0 0 0 1 0 0 0 0 0 0 0 0 0 0 0 0 0 0 0 0 0 0 0 0 0 0 0 0 0 0 0 0 0 0 0 0 0 0 0 0 1
1 0 0 0 1 3 2 0 0 0 0 0 0 0 0 0 0 0 0 0 0 0 0 0 0 0 0 0 0 0 0 0 0 0 0 0 0 0 0 0 0 2 3
2 1 0 1 2 4 3 1 1 1 1 0 0 0 0 0 0 0 0 0 0 0 0 0 0 0 0 0 0 0 0 0 0 0 0 0 0 0 0 0 0 2 4
6 4 2 3 6 10 13 11 7 4 3 2 0 0 0 0 0 0 0 0 0 0 0 0 0 0 0 0 0 0 0 1 1 0 0 0 0 0 0 0 0 1 1
23 20 15 14 19 29 39 38 27 18 14 7 2 0 0 0 0 0 0 0 0 0 0 0 0 0 0 0 0 0 1 2 2 1 0 0 0 0 0 0 0 0 0
57 53 47 44 48 57 64 62 51 37 23 11 3 0 0 0 0 0 0 0 0 0 0 0 0 0 0 0 0 0 1 2 2 1 0 0 0 0 0 0 0 0 0
86 85 81 78 78 76 73 68 54 34 18 8 3 0 0 0 0 0 0 0 0 0 0 0 0 0 0 0 0 0 0 1 1 0 0 0 0 0 0 0 0 0 0
98 97 96 92 87 81 75 63 41 19 8 4 2 0 0 0 0 0 0 0 0 0 0 0 0 0 0 0 0 0 0 0 0 0 0 0 0 0 0 0 0 0 0
97 95 92 89 84 78 69 49 24 8 3 2 1 0 0 0 0 0 0 0 0 0 0 0 0 0 0 0 0 0 0 0 0 0 0 0 0 0 0 0 0 0 0
87 82 78 75 73 66 49 25 9 2 1 1 0 0 0 0 0 0 0 0 0 0 0 0 0 0 0 0 0 0 0 0 0 0 0 0 0 0 0 0 0 0 0
63 58 53 51 48 39 22 6 0 0 0 0 0 0 0 0 0 0 0 0 0 0 0 0 0 0 0 0 0 0 0 0 0 0 0 0 0 0 0 0 0 0 0
30 28 26 24 21 14 6 1 0 0 0 0 0 0 0 0 0 0 0 0 0 0 0 0 0 0 0 0 0 0 0 0 0 0 0 0 0 0 0 0 0 0 0
12 12 12 10 7 3 1 0 0 0 0 0 0 0 0 0 0 0 0 0 0 0 0 0 0 0 0 0 0 0 0 0 0 0 0 0 0 0 0 0 0 0 0

GEFSSE_con_prob3kmehi_024.txt.gz
EHI
29 34 50 42 16 3 0 0 0 0 0 0 0 0 0 0 0 1 4 10 11 7 4 3 2 1 0 0 0 0 0 0 0 0 0 0 0 0 0 1 2 1 1
33 31 42 38 16 3 0 0 0 0 0 0 0 0 0 0 0 0 3 6 6 5 3 2 2 1 0 0 0 0 0 0 0 0 0 0 0 0 0 1 1 1 1
25 20 25 26 13 3 0 0 0 0 0 0 0 0 0 0 0 1 2 3 3 3 1 1 1 1 0 0 0 0 0 0 0 0 0 0 0 0 0 0 0 0 0
15 11 11 11 6 1 0 0 0 0 0 0 0 0 0 0 1 1 2 2 2 2 1 0 0 0 0 0 0 0 0 0 0 0 0 0 1 1 1 1 1 0 0
23 19 9 2 1 0 0 0 0 0 0 0 0 0 0 1 3 3 1 1 1 1 0 0 0 0 0 0 0 0 0 0 0 0 1 3 8 12 13 9 5 2 0
41 31 12 1 0 0 0 0 0 0 0 0 0 0 1 3 5 4 1 1 2 2 1 0 0 0 0 0 0 0 0 0 0 3 10 19 27 34 32 22 12 6 2
51 34 11 1 1 1 0 0 0 0 0 0 0 0 1 2 4 3 1 1 2 2 1 0 0 0 0 0 0 0 0 0 0 8 24 36 41 43 37 26 16 9 5
53 31 8 2 3 3 3 4 4 2 0 0 0 0 0 1 1 1 1 2 2 1 0 0 0 0 0 0 0 0 0 0 0 8 22 30 32 31 23 15 11 7 5
52 28 6 2 5 7 9 11 10 5 1 0 0 0 0 0 0 0 1 1 1 0 0 0 0 0 0 0 0 0 0 0 0 3 7 11 13 13 9 5 4 3 3
54 31 9 3 5 8 11 13 11 6 2 0 0 0 0 0 0 0 0 0 0 0 0 0 0 0 0 0 0 0 0 0 0 0 0 2 3 3 2 1 1 1 1
64 47 26 16 13 12 12 11 8 4 1 0 0 0 0 0 0 0 0 0 0 0 0 0 0 0 0 0 0 0 0 0 0 0 2 3 3 1 0 0 0 0 0
68 54 42 36 27 25 23 11 3 1 0 0 0 0 0 0 0 0 0 0 0 0 0 0 0 0 0 0 0 0 0 0 0 1 4 6 5 1 0 0 0 0 0
60 46 42 42 36 38 33 13 2 1 0 0 1 0 0 0 0 0 0 1 1 0 0 0 0 0 0 0 0 0 0 0 0 0 2 4 4 2 1 2 2 2 1
54 40 38 44 45 51 42 18 6 7 7 7 6 2 1 1 2 3 5 4 2 0 0 1 1 1 0 0 0 0 0 0 0 0 0 1 2 3 5 7 9 9 9
63 48 46 57 66 71 58 30 19 26 26 23 17 9 5 8 16 20 18 11 5 4 5 5 5 3 1 0 0 0 0 0 0 0 1 3 5 8 12 15 18 19 19
81 70 66 76 85 87 71 43 36 46 49 45 43 34 23 26 38 41 35 28 21 16 13 10 9 8 5 3 2 2 2 2 2 3 4 5 8 13 17 20 21 21 22
93 89 86 89 92 90 73 50 42 53 63 71 76 69 53 46 48 49 50 49 41 28 20 16 14 13 10 5 3 4 5 5 6 7 8 7 7 11 16 17 16 16 15
96 96 94 93 94 92 80 62 56 65 79 89 94 87 70 50 40 46 56 53 41 28 22 19 16 13 9 4 2 3 4 5 5 7 7 5 3 5 8 10 9 8 7
96 96 95 95 95 94 89 82 81 87 91 94 92 85 66 41 29 38 46 38 26 21 19 15 11 7 3 1 1 1 1 2 2 2 3 2 1 1 2 3 2 2 2
95 95 96 96 97 96 95 95 95 94 91 87 81 71 52 30 19 23 26 19 13 12 11 7 3 2 0 0 0 0 0 0 0 0 0 0 0 0 0 0 0 0 0
93 94 95 96 97 97 97 96 93 88 81 70 57 45 31 17 9 9 9 6 4 4 3 2 0 0 0 0 0 0 0 0 0 0 0 0 0 0 0 0 0 0 0
93 94 96 96 97 97 96 92 84 73 59 42 28 19 11 5 2 2 2 1 0 0 0 0 0 0 0 0 0 0 0 0 0 0 0 0 0 0 0 0 0 0 0
96 97 97 96 95 94 91 81 66 48 30 16 9 5 3 1 0 0 0 0 0 0 0 0 0 0 0 0 0 0 0 0 0 0 0 0 0 0 0 0 0 0 0
99 98 96 94 91 88 82 70 52 32 15 6 3 1 1 0 0 0 0 0 0 0 0 0 0 0 0 0 0 0 0 0 0 0 0 0 0 0 0 0 0 0 0
96 92 87 82 78 75 70 61 45 27 13 5 2 1 0 0 0 0 0 0 0 0 0 0 0 0 0 0 0 0 0 0 0 0 0 0 0 0 0 0 0 0 0
91 85 77 70 65 62 58 52 39 23 11 5 2 0 0 0 0 0 0 0 0 0 0 0 0 0 0 0 0 0 0 0 0 0 0 0 0 0 0 0 0 0 0

GEFSSE_con_prob3kmehi_030.txt.gz
EHI
0 15 51 80 87 83 77 66 51 37 26 16 8 8 17 34 50 61 64 61 51 35 16 5 1 0 0 0 0 0 0 0 0 0 0 0 0 0 0 1 0 2 4
3 19 55 83 88 81 71 55 38 24 17 10 5 4 9 18 28 36 38 36 29 18 8 2 0 0 0 0 0 0 0 0 0 0 0 0 0 0 0 1 1 2 4
11 25 58 83 85 74 58 40 22 12 8 4 2 1 2 4 6 9 9 8 6 3 1 0 0 0 0 0 0 0 0 0 0 0 0 0 0 0 0 1 1 2 3
16 27 54 77 78 63 44 26 14 7 3 1 0 0 0 0 0 0 0 0 0 0 0 0 0 0 0 0 0 0 0 0 0 0 0 0 0 0 0 0 1 1 1
13 23 48 68 66 50 31 17 9 4 1 0 0 0 0 0 0 0 0 0 0 0 0 0 0 0 0 0 0 0 0 0 0 0 0 0 0 1 1 0 0 0 0
9 16 34 50 49 36 24 15 9 3 0 0 0 0 0 0 0 0 0 0 0 0 0 0 0 0 0 0 0 0 0 0 0 0 0 0 1 2 1 0 0 0 0
6 7 17 28 31 28 24 19 13 6 2 1 0 0 0 0 0 0 0 0 0 0 0 0 0 0 0 0 0 0 0 0 0 0 0 0 1 3 4 5 4 2 0
4 4 6 13 20 25 26 23 17 10 5 1 0 0 0 0 0 0 0 0 0 0 0 0 0 0 0 0 0 0 0 0 1 0 0 0 2 6 9 11 10 5 2
4 4 4 6 12 21 26 25 20 12 5 1 0 0 0 0 0 0 0 0 0 0 0 0 0 0 0 0 0 0 0 0 0 0 0 1 4 8 10 10 9 7 5
3 4 5 5 10 18 23 24 20 12 4 1 0 0 0 0 0 0 0 0 0 0 0 0 0 0 0 0 0 0 0 0 0 0 0 1 5 8 7 4 4 5 7
9 7 7 8 12 16 18 16 13 7 2 1 0 0 0 0 0 0 0 0 0 0 0 0 0 0 0 0 0 0 0 0 0 0 0 2 5 5 3 1 1 3 4
26 18 11 10 13 15 11 7 5 2 1 0 0 0 0 0 0 0 0 0 0 0 0 0 0 0 0 0 0 0 0 0 0 0 1 4 4 2 1 0 0 1 1
51 37 21 14 13 11 7 3 1 0 0 0 0 0 0 0 0 0 0 0 0 0 0 0 0 0 0 0 0 0 0 0 0 0 3 8 10 7 4 2 1 2 2
76 62 43 27 16 10 6 3 1 0 0 0 0 0 0 0 0 0 0 0 0 0 0 0 0 0 0 0 0 0 0 0 0 0 3 9 15 16 13 9 7 7 7
89 82 71 53 32 16 8 3 0 0 0 0 0 0 0 0 0 0 0 0 0 0 0 0 0 0 0 0 0 0 0 0 0 0 2 6 13 21 25 24 20 16 16
91 90 87 76 56 33 15 4 1 0 0 0 0 0 0 0 0 0 0 0 0 0 0 0 0 0 0 0 0 0 0 0 0 0 0 2 6 18 34 43 38 29 26
90 91 91 85 74 53 28 11 8 6 3 1 0 0 0 0 0 0 0 0 0 0 0 0 0 0 0 0 0 0 0 0 0 0 0 0 2 10 29 44 45 37 31
89 92 93 89 82 67 43 26 24 22 13 5 2 1 1 0 0 0 0 0 0 0 0 0 0 0 0 0 0 0 0 0 0 0 0 0 0 3 11 23 31 30 25
88 92 95 93 89 78 60 49 46 42 30 15 4 2 1 0 0 0 0 0 0 0 0 0 0 0 0 0 0 0 0 0 0 0 0 0 0 0 1 5 11 13 11
88 90 93 95 95 88 78 72 66 58 44 23 6 1 1 0 0 0 0 0 0 0 0 0 0 0 0 0 0 0 0 0 0 0 0 0 0 0 0 0 1 2 2
90 90 90 91 93 93 89 83 74 59 41 20 5 0 0 0 0 0 0 0 0 0 0 0 0 0 0 0 0 0 0 0 0 0 0 0 0 0 0 0 0 0 0
89 89 88 87 88 91 89 78 61 39 21 8 2 0 0 0 0 0 0 0 0 0 0 0 0 0 0 0 0 0 0 0 0 0 0 0 0 0 0 0 0 0 0
86 87 86 83 82 83 79 62 37 16 4 1 0 0 0 0 0 0 0 0 0 0 0 0 0 0 0 0 0 0 0 0 0 0 0 0 0 0 0 0 0 0 0
80 80 79 75 70 67 59 40 18 5 0 0 0 0 0 0 0 0 0 0 0 0 0 0 0 0 0 0 0 0 0 0 0 0 0 0 0 0 0 0 0 0 0
76 73 68 61 51 43 33 19 7 2 0 0 0 0 0 0 0 0 0 0 0 0 0 0 0 0 0 0 0 0 0 0 0 0 0 0 0 0 0 0 0 0 0
75 69 60 50 37 26 17 7 1 0 0 0 0 0 0 0 0 0 0 0 0 0 0 0 0 0 0 0 0 0 0 0 0 0 0 0 0 0 0 0 0 0 0

GEFSSE_con_prob3kmehi_036.txt.gz
EHI
1 13 35 50 55 62 70 75 80 86 92 96 97 97 96 92 85 78 70 63 53 37 24 15 6 1 0 0 0 0 0 0 0 0 0 0 0 0 0 0 0 0 0
3 16 41 58 65 71 76 77 77 80 85 89 91 91 91 88 83 73 62 50 38 23 12 7 3 0 0 0 0 0 0 0 0 0 0 0 0 0 0 0 0 0 0
9 21 45 66 78 84 85 81 74 68 66 67 68 68 68 67 61 51 37 24 14 7 2 1 0 0 0 0 0 0 0 0 0 0 0 0 0 0 0 0 0 0 0
17 22 42 67 83 89 89 84 72 56 45 38 34 32 30 30 26 19 11 5 2 1 0 0 0 0 0 0 0 0 0 0 0 0 0 0 0 0 0 0 0 0 0
16 18 37 66 83 88 89 85 71 51 34 21 11 7 6 5 5 3 1 0 0 0 0 0 0 0 0 0 0 0 0 0 0 0 0 0 0 0 0 0 0 0 0
13 16 34 60 76 83 87 83 70 50 32 17 5 0 0 0 0 0 0 0 0 0 0 0 0 0 0 0 0 0 0 0 0 0 0 0 0 0 0 0 0 0 0
18 19 30 51 67 76 81 79 67 48 31 18 8 3 1 0 0 0 0 0 0 0 0 0 0 0 0 0 0 0 0 0 0 0 0 0 0 0 0 0 0 0 0
25 22 24 36 51 64 72 72 61 44 29 20 13 7 3 1 0 0 0 0 0 0 0 0 0 0 0 0 0 0 0 0 0 0 0 0 0 0 0 0 1 1 1
20 19 17 18 27 43 56 59 53 42 33 24 17 10 4 1 0 0 0 0 0 0 0 0 0 0 0 0 0 0 0 0 0 0 0 0 1 1 1 1 2 2 1
11 12 11 8 12 22 33 41 45 43 37 28 17 7 3 1 0 0 0 0 0 0 0 0 0 0 0 0 0 0 0 0 0 0 0 1 2 3 2 2 2 1 0
6 5 6 7 9 12 18 26 33 34 29 21 11 4 1 0 0 0 0 0 0 0 0 0 0 0 0 0 0 0 0 0 0 0 0 1 3 5 5 3 1 0 0
3 2 3 6 9 14 17 19 19 17 14 9 4 1 0 0 0 0 0 0 0 0 0 0 0 0 0 0 0 0 0 0 0 0 0 2 4 6 5 3 1 0 0
1 1 3 4 10 18 21 20 14 8 5 2 1 0 0 0 0 0 0 0 0 0 0 0 0 0 0 0 0 0 0 0 0 0 1 2 5 6 5 3 1 0 0
0 1 2 5 11 21 26 26 20 11 5 1 0 0 0 0 0 0 0 0 0 0 0 0 0 0 0 0 0 0 0 0 0 0 1 2 5 6 5 3 3 2 1
1 1 2 5 12 21 28 30 24 14 5 1 0 0 0 0 0 0 0 0 0 0 0 0 0 0 0 0 0 0 0 0 0 0 0 1 3 5 4 3 3 3 2
9 5 2 5 11 21 28 29 21 10 3 1 0 0 0 0 0 0 0 0 0 0 0 0 0 0 0 0 0 0 0 0 0 0 0 0 1 3 3 2 2 2 2
26 15 7 8 13 20 24 21 13 5 1 0 0 0 0 0 0 0 0 0 0 0 0 0 0 0 0 0 0 0 0 0 0 0 0 0 0 1 1 1 1 1 1
51 37 25 23 24 26 23 14 7 2 0 0 0 0 0 0 0 0 0 0 0 0 0 0 0 0 0 0 0 0 0 0 0 0 0 0 0 0 0 0 1 1 0
76 66 57 53 50 47 36 19 8 3 0 0 0 0 0 0 0 0 0 0 0 0 0 0 0 0 0 0 0 0 0 0 0 0 0 0 0 0 0 0 0 0 0
90 87 84 81 78 73 59 36 16 6 1 0 0 0 0 0 0 0 0 0 0 0 0 0 0 0 0 0 0 0 0 0 0 0 0 0 0 0 0 0 0 0 0
91 92 93 93 91 86 71 45 22 8 2 0 0 0 0 0 0 0 0 0 0 0 0 0 0 0 0 0 0 0 0 0 0 0 0 0 0 0 0 0 0 0 0
82 86 89 87 84 76 59 32 13 5 1 0 0 0 0 0 0 0 0 0 0 0 0 0 0 0 0 0 0 0 0 0 0 0 0 0 0 0 0 0 0 0 0
65 70 74 72 66 54 33 13 3 1 0 0 0 0 0 0 0 0 0 0 0 0 0 0 0 0 0 0 0 0 0 0 0 0 0 0 0 0 0 0 0 0 0
46 50 53 52 45 31 15 4 0 0 0 0 0 0 0 0 0 0 0 0 0 0 0 0 0 0 0 0 0 0 0 0 0 0 0 0 0 0 0 0 0 0 0
35 35 36 35 29 17 7 1 0 0 0 0 0 0 0 0 0 0 0 0 0 0 0 0 0 0 0 0 0 0 0 0 0 0 0 0 0 0 0 0 0 0 0
31 30 29 28 22 11 3 1 0 0 0 0 0 0 0 0 0 0 0 0 0 0 0 0 0 0 0 0 0 0 0 0 0 0 0 0 0 0 0 0 0 0 0

GEFSSE_con_prob3kmehi_042.txt.gz
EHI
7 18 22 10 1 1 6 20 40 53 61 63 63 61 57 55 59 65 67 68 60 44 27 17 11 5 2 1 0 0 0 0 0 0 0 0 0 0 0 0 0 0 0
18 27 26 11 3 4 13 31 54 70 77 79 79 76 73 72 73 75 76 72 60 41 23 12 6 3 1 0 0 0 0 0 0 0 0 0 0 0 0 0 0 0 0
33 36 26 12 8 9 19 40 66 82 89 93 93 91 88 86 85 82 77 68 53 32 14 5 2 1 0 0 0 0 0 0 0 0 0 0 0 0 0 0 0 0 0
38 39 31 24 18 12 18 36 60 77 87 93 94 92 90 87 83 74 61 48 35 18 6 1 0 0 0 0 0 0 0 0 0 0 0 0 0 0 0 0 0 0 0
30 35 43 42 30 17 15 27 47 66 78 86 88 88 85 79 71 57 38 25 16 6 1 0 0 0 0 0 0 0 0 0 0 0 0 0 0 0 0 0 0 0 0
16 25 47 56 42 25 17 22 37 54 67 74 78 80 77 69 57 41 23 11 6 2 0 0 0 0 0 0 0 0 0 0 0 0 0 0 1 2 1 0 0 0 0
5 15 40 59 53 36 25 24 31 43 52 58 64 67 65 56 44 30 16 7 3 0 0 1 1 1 0 0 0 0 0 0 0 0 0 1 2 3 1 0 0 0 0
1 8 28 48 50 42 34 30 31 34 38 41 44 48 47 40 30 20 14 7 2 0 1 2 2 1 0 0 0 0 0 0 0 0 0 1 4 3 1 0 0 0 0
0 4 15 26 33 33 32 32 31 30 29 26 25 27 27 22 17 13 11 8 3 1 1 1 2 1 0 0 0 0 0 0 0 0 0 2 3 2 1 0 0 0 0
0 1 5 10 16 18 18 22 25 24 21 17 14 12 11 9 7 7 8 7 3 0 0 0 0 0 0 0 0 0 0 0 0 0 1 3 4 3 2 1 0 0 0
4 3 3 5 8 9 7 10 14 14 12 10 8 7 5 2 2 5 9 8 3 0 0 0 0 0 0 0 0 0 0 0 0 0 2 6 6 5 4 3 2 1 0
13 7 4 4 6 6 3 4 5 5 5 4 4 6 4 1 0 4 10 7 2 0 0 0 0 0 0 0 0 0 0 0 0 0 3 7 7 7 7 7 5 2 0
14 9 4 4 5 3 2 1 1 2 3 4 5 6 4 1 0 3 5 3 1 0 0 0 0 0 0 0 0 0 0 0 0 1 3 6 7 9 10 9 7 3 1
10 7 4 4 4 3 1 0 0 2 5 5 6 6 4 2 1 1 1 1 1 0 0 0 0 0 0 0 0 0 0 0 0 1 2 4 6 8 8 8 6 3 1
13 10 7 8 13 14 10 5 3 4 5 5 5 5 6 5 3 2 2 3 2 1 1 0 0 0 0 0 0 0 0 0 0 0 1 1 3 5 6 5 5 3 2
30 25 20 23 31 36 30 18 10 7 7 7 8 9 9 7 5 4 5 7 8 7 5 2 1 1 0 0 0 0 0 0 0 0 0 0 1 3 4 5 4 3 3
53 48 43 44 52 58 53 40 28 21 19 20 20 19 15 11 9 10 13 16 16 14 10 5 2 1 0 0 0 0 0 0 0 0 0 0 0 1 2 3 3 3 2
74 72 67 65 69 75 75 68 56 47 42 40 37 31 22 16 16 20 23 23 21 16 10 5 2 1 0 0 0 0 0 0 0 0 0 0 0 0 0 1 1 1 1
86 86 85 83 84 88 90 87 79 69 60 53 47 39 27 17 17 22 24 23 19 14 8 3 1 1 0 0 0 0 0 0 0 0 0 0 0 0 0 0 0 0 0
88 92 95 95 95 95 95 93 84 73 62 51 42 34 23 14 14 17 18 16 13 10 6 2 0 0 0 0 0 0 0 0 0 0 0 0 0 0 0 0 0 0 0
81 89 96 98 99 98 96 91 81 66 50 38 28 20 13 9 9 10 9 7 6 4 3 1 0 0 0 0 0 0 0 0 0 0 0 0 0 0 0 0 0 0 0
72 81 90 95 98 97 93 86 72 52 34 22 15 9 4 3 3 3 2 2 1 1 1 0 0 0 0 0 0 0 0 0 0 0 0 0 0 0 0 0 0 0 0
67 74 84 92 94 92 85 73 56 37 22 12 6 2 0 0 0 0 0 0 0 0 0 0 0 0 0 0 0 0 0 0 0 0 0 0 0 0 0 0 0 0 0
70 73 81 86 86 81 71 57 43 29 17 7 2 0 0 0 0 0 0 0 0 0 0 0 0 0 0 0 0 0 0 0 0 0 0 0 0 0 0 0 0 0 0
72 73 74 73 69 62 52 42 33 22 11 4 1 0 0 0 0 0 0 0 0 0 0 0 0 0 0 0 0 0 0 0 0 0 0 0 0 0 0 0 0 0 0
69 70 66 60 53 47 40 32 24 14 5 1 1 0 0 0 0 0 0 0 0 0 0 0 0 0 0 0 0 0 0 0 0 0 0 0 0 0 0 0 0 0 0

GEFSSE_con_prob3kmehi_048.txt.gz
EHI
35 48 69 67 45 22 5 0 0 0 0 0 0 0 4 14 25 35 38 29 16 6 1 0 0 0 0 0 0 0 0 1 2 3 5 10 12 12 15 18 12 4 0
47 54 70 68 44 20 4 0 0 0 0 0 1 1 4 11 18 24 25 20 11 4 0 0 0 0 0 0 0 0 0 0 1 1 2 4 5 5 8 15 15 6 0
52 51 60 62 42 18 5 1 0 0 0 1 2 3 6 10 14 15 14 11 6 2 0 0 0 0 0 0 0 0 0 0 0 0 0 0 0 0 2 7 9 5 1
43 39 46 53 39 18 6 3 1 1 1 2 5 9 12 16 20 18 13 8 4 1 0 0 0 0 0 0 0 0 0 0 0 0 0 1 1 1 0 1 2 2 2
31 29 38 45 35 17 7 4 2 2 2 6 14 21 26 29 29 22 13 7 3 0 0 0 0 0 0 0 0 0 0 0 0 0 1 3 4 3 1 0 0 1 1
25 23 28 35 28 14 7 4 3 2 5 12 25 36 42 42 36 24 13 5 1 0 0 0 0 0 0 0 0 0 0 1 1 1 3 7 9 7 3 0 0 0 1
25 22 22 27 25 13 5 3 2 3 8 17 30 43 50 48 39 24 10 3 0 0 0 0 0 0 0 0 0 0 0 1 1 1 7 15 19 15 7 2 0 0 1
35 30 23 22 21 12 5 2 1 4 10 18 27 37 42 40 31 18 7 2 1 0 0 0 0 0 0 0 0 0 0 0 0 2 10 24 31 25 15 6 2 0 0
46 38 21 12 12 8 4 2 2 5 10 15 20 24 25 23 17 11 6 4 2 1 0 0 0 0 0 0 0 0 0 0 0 2 13 32 44 39 23 11 4 1 0
53 45 22 5 4 3 2 2 5 8 9 11 12 13 11 8 6 6 7 8 5 2 0 0 0 0 0 0 0 0 0 0 0 4 18 41 55 47 28 12 4 1 0
57 53 30 9 3 1 1 4 6 7 7 6 6 5 3 2 2 6 18 24 14 4 1 0 0 0 0 0 0 0 0 0 2 10 27 45 55 46 27 11 4 1 0
59 58 41 21 10 3 6 10 6 4 5 3 3 4 2 1 5 17 38 43 26 7 1 0 0 0 0 0 0 0 0 0 4 15 31 45 50 41 23 10 6 3 1
54 52 47 38 21 11 18 22 9 5 8 5 4 8 5 4 14 34 48 45 27 10 3 1 0 0 0 0 0 0 0 0 3 12 26 37 40 32 19 11 8 4 1
46 42 47 53 40 31 41 37 17 13 18 15 15 20 16 15 27 46 53 43 28 16 10 6 4 2 1 0 0 0 0 1 3 7 13 19 21 18 13 9 7 4 3
51 43 48 65 66 62 67 58 37 34 39 41 43 43 39 39 50 65 69 59 44 37 30 20 15 11 6 2 0 0 0 1 2 2 3 4 7 8 7 6 5 4 4
70 61 62 78 87 87 84 77 66 64 70 73 73 70 64 67 78 87 89 81 70 64 55 40 30 23 14 6 2 0 0 0 0 0 0 0 2 4 5 4 3 3 4
86 82 82 89 96 97 93 89 84 84 88 90 89 84 79 82 92 98 98 93 87 81 69 52 38 27 17 9 3 0 0 0 0 0 0 0 1 2 2 2 2 3 4
94 95 95 95 98 99 98 95 93 92 94 93 91 87 82 84 92 96 93 90 87 79 63 46 34 23 15 7 2 0 0 0 0 0 0 0 0 0 0 0 1 1 2
98 99 98 98 99 100 100 99 98 98 97 94 90 86 81 79 82 83 79 76 73 63 48 32 23 16 9 3 0 0 0 0 0 0 0 0 0 0 0 0 0 0 1
100 100 100 100 100 100 100 100 100 99 96 90 85 79 74 67 63 61 60 59 54 45 32 21 13 8 4 1 0 0 0 0 0 0 0 0 0 0 0 0 0 0 0
99 100 100 100 100 100 100 100 98 96 92 84 75 67 59 51 44 41 41 42 39 31 21 12 7 3 1 0 0 0 0 0 0 0 0 0 0 0 0 0 0 0 0
99 100 100 100 100 100 99 98 95 89 83 74 65 55 44 35 30 26 25 25 22 17 11 5 2 1 0 0 0 0 0 0 0 0 0 0 0 0 0 0 0 0 0
98 98 99 99 98 97 96 93 89 81 71 61 52 42 30 20 16 15 12 10 8 6 4 2 0 0 0 0 0 0 0 0 0 0 0 0 0 0 0 0 0 0 0
92 93 94 94 93 92 90 87 81 71 59 48 36 25 16 8 5 5 5 3 2 2 1 0 0 0 0 0 0 0 0 0 0 0 0 0 0 0 0 0 0 0 0
78 80 82 81 80 79 77 73 66 54 42 32 20 11 5 2 1 1 2 1 1 1 0 0 0 0 0 0 0 0 0 0 0 0 0 0 0 0 0 0 0 0 0
67 68 70 69 67 66 63 59 51 38 27 19 11 5 2 1 0 0 1 0 0 0 0 0 0 0 0 0 0 0 0 0 0 0 0 0 0 0 0 0 0 0 0

GEFSSE_con_prob3kmehi_054.txt.gz
EHI
6 21 48 75 93 96 90 83 78 76 75 74 75 78 80 80 78 77 75 66 48 26 11 3 1 0 1 2 2 1 0 1 3 4 4 7 11 12 14 15 10 8 13
17 29 53 78 90 90 82 73 64 60 59 59 61 65 68 68 65 61 54 45 31 15 6 2 0 0 0 1 1 2 1 1 2 2 2 5 8 10 13 15 13 12 14
37 37 54 77 86 82 72 60 46 36 33 35 37 40 42 42 39 33 24 17 10 4 1 0 0 0 0 0 1 2 2 1 2 1 1 2 3 5 9 12 14 18 19
43 40 52 74 81 75 65 51 35 21 15 15 16 17 17 18 16 12 6 2 1 1 0 0 0 0 0 0 0 1 2 2 2 1 0 0 0 2 5 9 14 19 21
38 39 54 72 78 73 60 43 27 13 7 6 6 5 5 5 5 3 1 0 0 0 0 0 0 0 0 0 0 1 2 2 1 0 0 0 0 3 6 10 14 16 17
35 40 54 70 75 69 54 34 19 9 4 3 3 2 1 1 1 0 0 0 0 0 0 0 0 0 0 0 0 1 1 1 0 0 0 0 1 4 9 11 12 12 11
41 41 50 63 69 64 47 27 14 7 3 1 1 1 0 0 0 0 0 0 0 0 0 0 0 0 0 0 0 0 1 0 0 0 0 0 2 5 8 10 10 8 7
46 42 41 46 52 51 39 25 14 7 3 2 2 1 1 1 1 0 0 0 0 0 0 0 0 0 0 0 0 0 1 0 0 0 0 0 3 5 5 6 7 5 4
38 34 28 25 27 30 27 21 16 11 7 5 4 3 3 5 4 3 3 1 0 0 0 0 0 0 0 0 0 0 1 0 0 0 0 1 3 4 3 3 3 2 2
19 19 16 12 9 10 12 13 13 11 9 6 5 5 6 6 5 5 4 1 0 0 0 0 0 0 0 0 0 0 1 0 0 0 0 2 3 3 2 1 1 0 1
5 7 9 10 6 3 3 5 6 6 6 4 3 5 5 3 3 3 2 1 1 1 0 0 0 0 0 0 0 0 0 0 0 0 1 4 7 7 4 2 1 0 0
2 2 5 9 9 6 4 3 2 1 1 1 1 2 2 1 0 0 0 1 2 2 1 0 0 0 0 0 0 0 0 0 0 0 2 7 11 12 9 5 2 1 0
4 3 3 6 8 7 5 5 2 1 0 0 0 0 0 0 0 0 0 1 1 1 0 0 0 0 0 0 0 0 0 0 0 1 4 10 13 14 11 8 5 2 1
12 8 4 3 4 5 5 5 3 1 0 0 0 0 0 0 0 0 0 1 0 0 0 0 0 0 0 0 0 0 1 1 1 2 7 13 14 13 12 11 8 5 3
31 20 8 5 4 5 5 4 2 1 0 0 0 0 0 0 0 0 0 0 0 0 0 0 0 0 0 0 0 0 0 0 0 1 6 12 14 13 14 13 9 6 5
49 36 21 12 8 9 10 5 1 0 0 0 0 0 0 0 0 1 1 1 0 0 0 0 0 0 0 0 0 0 0 0 0 0 2 7 10 12 14 11 7 4 4
55 50 38 26 19 21 20 12 4 3 2 1 0 0 1 1 2 4 5 4 1 0 0 0 0 0 0 0 0 0 0 0 0 0 0 2 4 7 8 6 3 2 1
51 55 54 46 43 46 42 30 20 17 13 10 7 7 8 9 10 9 8 5 1 0 0 0 0 0 0 0 0 0 0 0 0 0 0 0 0 1 2 2 1 1 0
45 53 64 68 71 75 71 58 47 40 33 27 23 21 21 22 19 14 8 3 1 0 0 0 0 0 0 0 0 0 0 0 0 0 0 0 0 0 0 0 0 0 0
43 51 66 79 87 92 89 80 69 59 48 40 35 32 30 27 21 15 9 3 0 0 0 0 0 0 0 0 0 0 0 0 0 0 0 0 0 0 0 0 0 0 0
49 53 65 80 91 94 93 86 76 64 52 41 35 31 28 23 16 12 8 3 1 0 0 0 0 0 0 0 0 0 0 0 0 0 0 0 0 0 0 0 0 0 0
58 59 67 80 87 89 88 83 73 59 45 34 26 22 20 16 11 8 5 2 1 0 0 0 0 0 0 0 0 0 0 0 0 0 0 0 0 0 0 0 0 0 0
65 66 71 78 82 83 82 77 66 53 39 27 18 13 11 10 7 4 1 1 0 0 0 0 0 0 0 0 0 0 0 0 0 0 0 0 0 0 0 0 0 0 0
63 66 70 75 76 77 75 68 58 46 32 20 13 8 6 5 3 1 0 0 0 0 0 0 0 0 0 0 0 0 0 0 0 0 0 0 0 0 0 0 0 0 0
48 51 57 63 64 61 57 51 43 33 23 14 8 4 2 1 0 0 0 0 0 0 0 0 0 0 0 0 0 0 0 0 0 0 0 0 0 0 0 0 0 0 0
33 36 43 49 50 44 39 35 29 22 15 10 6 3 1 0 0 0 0 0 0 0 0 0 0 0 0 0 0 0 0 0 0 0 0 0 0 0 0 0 0 0 0

GEFSSE_con_prob3kmehi_060.txt.gz
EHI
25 28 31 35 46 69 90 98 99 99 98 95 92 89 85 77 65 53 40 26 16 8 4 5 6 5 4 2 1 1 1 0 0 0 0 0 0 0 0 0 0 2 4
44 37 34 37 50 71 88 95 97 98 97 95 93 91 88 83 73 63 51 37 26 16 9 7 5 3 2 1 1 1 1 1 0 0 0 0 0 0 0 0 1 4 7
64 50 37 40 56 72 83 90 94 96 96 94 93 93 92 87 79 68 57 46 34 22 13 8 4 1 0 0 1 2 2 1 0 0 0 0 0 0 0 0 2 6 10
70 55 39 44 60 72 80 87 92 94 94 92 91 90 87 81 71 60 50 40 30 19 11 6 3 1 0 0 1 2 1 1 0 0 0 0 0 0 0 0 1 5 9
61 50 44 53 63 71 79 86 88 90 90 88 85 80 74 66 56 46 36 27 18 12 7 3 1 0 0 1 1 1 0 0 0 0 0 0 0 0 0 0 1 3 4
50 45 48 58 63 69 77 81 81 81 81 80 76 68 57 47 38 29 21 14 8 5 3 1 0 0 0 1 1 1 0 0 0 0 0 0 0 1 1 0 0 1 1
46 44 48 55 58 62 69 72 71 71 71 67 61 51 40 30 22 15 10 7 4 2 1 0 0 0 0 0 0 0 0 0 0 0 0 0 1 2 2 1 1 1 1
51 47 44 44 45 49 55 60 61 60 57 51 41 30 22 15 9 5 4 3 2 1 0 0 0 0 0 0 0 0 0 0 0 0 0 1 2 4 4 2 1 0 0
50 46 37 29 28 32 36 41 45 43 39 32 22 13 9 5 3 1 1 1 1 0 0 0 0 0 0 0 0 0 0 0 0 0 0 1 2 3 3 2 0 0 0
35 32 26 19 15 16 19 23 25 25 23 18 10 5 3 1 1 0 0 0 0 0 0 0 0 0 0 0 0 1 0 0 0 0 0 0 1 2 2 1 0 0 0
20 18 15 13 11 11 11 12 13 14 13 9 4 1 1 0 0 0 0 0 0 0 0 0 1 0 0 0 0 0 0 0 0 0 0 0 0 2 2 1 0 0 0
15 11 7 9 12 11 10 10 11 11 8 4 1 0 0 0 0 0 0 0 0 0 0 0 0 0 0 0 0 0 0 0 0 0 0 1 1 2 2 1 0 0 0
11 8 5 6 10 11 11 12 13 11 6 1 0 0 0 0 0 0 0 0 0 0 0 0 0 0 0 0 0 0 0 0 0 0 2 5 5 3 1 1 0 0 0
5 5 6 8 9 11 12 13 12 10 7 3 1 1 0 0 0 0 0 0 0 0 0 0 0 0 0 0 0 0 0 0 0 1 4 10 10 5 2 1 1 0 1
2 3 6 9 10 12 13 13 11 9 7 5 3 2 1 0 0 0 0 0 0 0 0 0 0 0 0 0 0 0 0 0 0 1 4 12 15 12 7 4 2 1 2
0 1 4 8 11 13 14 14 12 9 7 4 3 2 1 0 0 0 0 0 0 0 0 0 0 0 0 0 0 0 0 0 0 0 2 8 14 15 12 8 4 3 4
1 1 2 5 8 10 12 13 11 8 4 2 2 1 1 0 0 0 0 0 0 0 0 0 0 0 0 0 0 0 0 0 0 0 0 3 6 10 11 9 6 6 5
5 5 5 7 7 7 8 9 8 5 2 1 0 0 0 0 0 0 0 0 0 0 0 0 0 0 0 0 0 0 0 0 0 0 0 0 0 2 5 7 7 6 4
12 12 13 13 11 7 6 7 5 3 1 0 0 0 0 0 0 0 0 0 0 0 0 0 0 0 0 0 0 0 0 0 0 0 0 0 0 1 3 4 4 3 3
20 20 21 23 20 15 13 13 9 4 1 0 0 0 0 0 0 0 0 0 0 0 0 0 0 0 0 0 0 0 0 0 0 0 0 0 0 0 1 1 1 1 1
25 24 25 29 30 29 28 27 22 13 5 1 0 0 0 0 1 1 1 0 0 0 0 0 0 0 0 0 0 0 0 0 0 0 0 0 0 0 0 0 0 0 0
22 22 23 29 36 39 39 38 34 21 8 2 0 0 0 0 1 1 1 0 0 0 0 0 0 0 0 0 0 0 0 0 0 0 0 0 0 0 0 0 0 0 0
17 18 20 26 35 41 41 41 37 26 15 7 2 1 0 0 1 1 0 0 0 0 0 0 0 0 0 0 0 0 0 0 0 0 0 0 0 0 0 0 0 0 0
13 14 16 20 27 34 35 37 35 29 20 11 5 2 0 0 0 0 0 0 0 0 0 0 0 0 0 0 0 0 0 0 0 0 0 0 0 0 0 0 0 0 0
9 9 10 13 18 22 24 26 26 22 15 9 5 2 0 0 0 0 0 0 0 0 0 0 0 0 0 0 0 0 0 0 0 0 0 0 0 0 0 0 0 0 0
4 6 7 9 13 16 16 16 15 12 8 6 4 2 1 0 0 0 0 0 0 0 0 0 0 0 0 0 0 0 0 0 0 0 0 0 0 0 0 0 0 0 0

GEFSSE_con_prob3kmehi_066.txt.gz
EHI
44 48 44 29 19 23 37 52 59 55 46 38 32 27 22 18 14 12 10 7 6 5 6 9 12 12 10 6 3 2 1 0 0 0 0 0 0 0 0 0 0 1 1
61 59 50 37 31 34 48 64 73 72 64 56 49 43 37 30 22 17 14 10 6 5 5 7 8 8 7 4 2 1 0 0 0 0 0 0 0 0 0 0 1 1 1
77 66 50 46 48 52 65 80 88 89 85 79 72 64 57 49 39 30 22 14 7 5 5 6 5 4 3 2 1 0 0 0 0 0 0 0 0 0 0 1 2 1 0
77 65 52 54 61 67 78 90 96 96 94 90 85 79 72 65 57 45 29 16 9 7 6 6 4 2 1 0 0 0 0 0 0 0 0 0 0 0 0 0 1 0 0
69 62 59 63 69 75 84 94 98 99 97 94 91 88 84 78 71 57 37 22 14 10 7 6 4 1 0 0 0 0 0 0 0 0 0 0 0 0 0 0 0 0 0
55 52 56 64 68 75 85 94 98 99 99 97 96 94 91 86 77 63 45 30 20 13 9 6 4 2 0 0 0 0 0 0 0 0 0 0 0 0 0 0 0 0 0
42 40 44 52 58 68 81 90 95 97 98 98 98 96 92 86 78 65 49 33 23 16 10 6 3 2 0 0 0 0 0 0 0 0 0 0 1 1 0 0 0 0 0
34 33 33 34 39 52 70 84 90 92 93 94 94 92 87 80 73 62 47 33 25 19 12 6 3 2 0 0 0 0 0 0 0 0 0 1 3 2 1 0 0 0 0
27 26 23 18 19 29 47 64 76 81 84 85 84 81 76 68 58 48 39 32 25 19 13 8 4 3 1 0 0 0 0 0 0 0 0 4 7 5 2 1 1 0 0
21 19 14 9 7 11 20 34 50 61 66 67 66 61 54 44 34 26 25 26 21 14 11 8 6 4 1 0 0 0 0 0 0 0 3 10 13 7 3 3 3 1 0
24 17 8 5 5 5 7 14 23 32 37 38 37 33 25 16 11 10 16 20 14 9 8 7 6 3 1 0 0 0 0 0 0 0 7 18 18 7 3 4 4 2 0
33 20 6 3 6 8 8 9 9 11 13 12 11 9 6 3 1 6 14 14 10 6 6 6 4 2 0 0 0 0 0 0 0 0 10 23 19 6 1 3 3 2 1
33 19 6 3 6 9 11 11 10 9 7 3 2 3 4 4 3 5 9 9 6 4 3 4 2 0 0 0 0 0 0 0 0 1 11 23 18 7 3 3 3 2 1
26 17 7 4 6 10 13 14 14 12 8 6 7 8 8 7 6 5 5 5 3 1 1 1 1 0 0 0 0 0 0 0 0 2 10 19 17 11 8 6 3 1 0
18 14 9 6 7 10 13 14 14 13 10 10 13 14 13 10 8 8 8 6 3 1 1 0 0 0 0 0 0 0 0 0 0 2 7 14 15 15 13 9 4 1 0
11 9 7 5 6 8 9 10 10 9 9 11 14 16 15 11 10 11 12 10 6 4 5 4 4 3 1 0 0 0 0 0 0 1 4 8 11 13 14 11 5 1 0
6 6 4 4 5 6 6 6 7 6 5 9 13 16 16 13 12 14 14 13 12 14 17 16 14 11 7 3 1 0 1 1 0 1 2 4 5 7 10 11 8 4 1
6 6 5 4 6 9 9 9 9 9 10 14 18 18 16 15 16 18 18 18 22 28 31 29 26 21 15 9 5 3 3 4 2 1 1 2 2 3 6 10 11 6 2
9 10 10 9 10 13 16 17 19 22 24 27 29 26 23 23 23 26 27 28 32 36 37 34 30 27 21 13 7 5 5 5 4 2 2 2 2 2 4 8 8 5 3
18 18 16 15 18 23 28 31 34 36 37 37 39 39 38 35 32 32 33 33 34 35 34 30 28 26 21 14 8 5 5 4 5 5 4 3 2 1 2 4 4 3 2
28 26 22 21 25 34 42 48 51 48 44 41 43 47 47 43 39 35 32 31 29 27 25 23 22 20 16 12 9 7 5 4 4 4 3 2 1 0 0 1 2 2 1
32 30 27 29 34 40 49 57 60 56 49 42 41 44 44 41 37 30 26 23 22 20 17 15 13 12 9 8 8 9 7 4 2 2 1 1 0 0 0 0 1 1 0
35 35 36 39 44 47 52 57 58 55 49 43 38 34 31 28 24 19 16 15 15 14 12 9 7 6 6 5 5 6 5 2 1 0 0 0 0 0 0 0 0 0 0
37 39 41 41 45 51 55 55 53 49 45 38 29 21 15 12 10 9 8 8 9 8 6 5 4 4 4 3 2 1 1 0 0 0 0 0 0 0 0 0 0 0 0
29 33 34 33 35 41 46 49 47 43 35 25 17 10 6 3 2 3 4 4 5 4 4 3 3 3 3 2 1 0 0 0 0 0 0 0 0 0 0 0 0 0 0
19 23 25 25 26 29 35 41 41 36 26 16 10 6 4 1 1 2 3 3 3 3 3 3 3 2 1 1 0 0 0 0 0 0 0 0 0 0 0 0 0 0 0

GEFSSE_con_prob3kmehi_072.txt.gz
EHI
97 98 99 93 70 35 9 1 0 0 0 0 0 0 0 1 3 5 3 1 0 0 0 0 0 0 0 0 0 1 3 8 16 30 42 45 44 40 29 16 8 3 0
98 99 99 94 74 40 13 2 0 0 0 0 0 0 0 0 2 3 2 1 0 0 0 0 0 0 0 0 0 0 1 4 8 13 19 22 23 25 23 23 20 10 2
99 100 99 96 81 52 23 6 1 1 0 1 1 0 0 0 1 2 1 0 0 0 0 0 0 0 0 0 0 0 0 1 1 1 2 3 5 10 16 27 30 17 5
99 99 99 97 87 67 40 17 7 4 3 3 4 3 2 1 1 1 1 0 0 0 0 0 0 0 0 0 0 0 0 0 0 0 1 3 4 7 13 20 22 15 7
96 98 99 98 92 79 56 32 16 10 10 12 12 9 6 4 2 1 1 0 0 0 0 0 0 0 0 0 0 0 0 0 0 0 4 9 11 11 11 11 11 9 6
91 94 96 97 94 85 70 48 30 24 26 29 29 25 19 13 7 3 2 1 1 0 0 0 0 0 0 0 0 0 0 1 1 2 9 19 21 17 11 7 6 5 4
88 89 92 94 92 87 79 66 52 47 48 52 52 48 39 29 17 9 5 3 2 1 0 0 0 0 0 0 0 0 0 2 3 5 18 34 38 28 16 7 4 3 3
84 81 81 85 86 84 80 76 71 68 68 69 69 64 55 44 31 18 10 6 3 1 0 0 0 0 0 0 0 0 0 2 3 8 27 48 54 43 24 9 4 2 1
77 69 61 63 68 71 70 72 73 73 73 72 69 64 56 44 32 22 15 10 6 2 1 0 0 0 0 0 0 0 0 0 1 8 28 52 64 55 32 12 5 2 0
69 56 41 38 42 45 48 54 58 59 63 63 55 48 39 27 18 14 15 14 9 3 1 1 1 1 0 0 0 0 0 0 0 7 27 54 72 63 37 17 7 2 0
68 50 31 23 20 19 22 29 33 35 40 39 31 24 17 9 5 8 17 24 17 7 3 2 3 2 1 0 1 1 0 0 0 9 31 61 79 72 47 25 10 2 0
68 49 29 20 12 7 9 13 12 12 13 12 9 7 4 1 4 14 29 35 27 12 5 4 5 3 1 1 3 3 1 0 1 13 40 70 85 82 63 38 15 3 0
62 45 30 25 16 12 14 11 4 2 2 2 4 5 3 2 8 23 34 35 26 13 6 6 6 4 2 2 3 3 2 0 3 18 47 74 87 86 74 49 21 6 3
53 41 34 35 31 32 34 21 7 5 7 9 13 13 8 5 11 22 31 29 20 13 11 11 7 4 3 2 1 1 1 1 6 20 45 69 82 84 75 52 26 11 8
53 44 42 50 55 62 60 41 21 17 19 24 30 25 15 12 15 23 33 33 23 21 27 23 15 11 10 8 5 4 4 5 10 18 35 57 73 79 74 54 32 18 14
60 54 55 68 80 84 76 58 40 32 32 40 47 41 27 24 32 40 47 45 34 32 42 41 31 28 26 22 17 14 13 13 17 21 28 43 58 68 68 59 43 29 21
71 69 69 76 87 91 80 63 46 37 39 51 62 60 47 42 53 62 61 55 46 42 48 51 49 46 43 37 30 24 22 23 27 26 26 31 37 45 54 57 51 38 29
82 82 76 74 82 86 78 64 46 40 48 62 71 71 63 58 64 71 69 62 56 53 52 54 57 54 50 44 36 28 24 26 27 23 21 21 21 24 33 43 43 37 31
91 89 82 78 80 81 75 64 53 52 60 70 73 72 68 64 65 70 71 66 61 58 56 56 59 55 48 39 30 23 19 18 18 14 12 11 12 16 20 24 27 26 24
92 90 87 85 85 84 77 68 62 61 65 69 69 66 65 64 64 66 68 66 61 56 54 52 51 46 37 27 19 13 9 8 10 10 8 6 8 11 12 12 14 14 13
84 85 84 84 85 85 81 75 68 63 63 65 64 61 59 59 59 59 58 56 52 47 42 37 33 29 23 17 12 7 4 4 6 7 6 5 5 5 4 5 6 5 4
70 71 71 72 76 79 78 75 69 62 59 58 55 50 47 46 45 44 42 38 35 31 25 20 18 16 13 11 9 6 4 3 3 3 3 3 2 1 0 1 2 1 1
50 51 51 55 61 66 67 66 64 60 53 48 42 36 31 28 26 25 23 21 19 17 12 9 9 9 9 8 7 5 3 3 2 1 1 1 1 0 0 0 0 0 0
30 31 32 35 40 45 51 55 57 53 44 34 27 21 17 12 10 10 10 9 9 8 5 3 3 4 5 6 5 3 2 2 1 1 0 0 0 0 0 0 0 0 0
15 16 17 18 19 24 31 38 42 38 29 21 15 11 8 5 4 4 3 3 3 2 1 0 1 2 3 3 3 2 1 0 0 0 0 0 0 0 0 0 0 0 0
10 10 9 9 9 12 18 23 27 25 19 13 10 7 5 4 3 3 2 1 1 0 0 0 1 2 2 2 1 1 0 0 0 0 0 0 0 0 0 0 0 0 0

GEFSSE_con_prob3kmehi_078.txt.gz
EHI
16 22 24 26 34 39 36 31 31 37 44 48 52 54 57 56 50 43 34 23 13 7 4 2 0 0 0 0 1 2 3 3 4 6 10 12 13 18 24 21 11 5 5
34 32 29 32 40 43 38 30 27 30 35 39 43 46 47 43 37 29 20 12 7 5 4 2 0 0 0 0 0 1 2 1 2 4 8 11 13 17 25 25 14 7 7
57 47 38 41 49 51 44 33 23 19 22 25 29 30 26 22 18 11 5 2 1 1 1 1 0 0 0 0 0 0 0 0 0 2 4 6 8 14 26 29 19 10 10
72 60 49 52 61 60 49 36 21 12 11 14 15 13 9 6 4 2 0 0 0 0 0 0 0 0 0 0 0 0 0 0 0 1 1 1 3 10 21 24 17 10 9
79 71 65 68 70 64 51 36 22 11 6 5 5 3 1 1 1 0 0 0 0 0 0 0 0 0 0 0 0 0 0 0 0 0 0 0 3 11 19 18 13 8 7
83 80 81 82 77 65 51 37 25 14 6 2 1 0 0 0 0 0 0 0 0 0 0 0 0 0 0 0 0 0 0 0 0 0 0 0 6 19 26 22 15 9 6
88 87 88 89 83 70 55 43 31 19 9 4 1 0 0 0 0 0 0 0 0 0 0 0 0 0 0 0 0 0 0 0 0 0 0 1 11 29 38 31 20 10 6
94 91 88 86 82 73 64 54 41 25 13 5 1 0 0 0 0 0 0 0 0 0 0 0 0 0 0 0 0 0 0 0 0 0 0 3 18 38 46 39 27 15 9
94 92 85 77 72 68 64 58 46 28 14 5 1 0 0 0 0 0 0 0 0 0 0 0 0 0 0 0 0 0 0 0 0 0 0 7 27 46 51 46 37 25 17
86 86 81 72 64 57 53 49 40 26 15 6 2 1 1 0 0 0 0 0 1 1 0 0 0 0 0 0 0 0 0 0 0 0 1 13 36 54 56 51 44 32 23
78 76 75 73 66 56 46 39 32 24 15 7 3 2 2 0 0 0 0 1 3 3 2 1 0 0 0 0 0 0 0 0 0 0 3 19 44 60 60 55 48 36 25
72 67 67 70 69 62 51 40 31 22 13 7 4 3 1 0 0 0 0 2 4 5 4 2 0 0 0 0 0 0 0 0 0 0 5 25 51 64 64 59 53 42 32
62 59 58 61 61 58 52 42 30 20 10 4 3 2 1 0 0 0 0 2 4 4 3 1 0 0 0 0 0 0 0 0 0 0 8 30 54 65 65 63 60 52 43
47 48 48 47 45 42 40 33 23 14 6 2 1 1 0 0 0 0 0 1 2 2 1 0 0 0 0 0 0 0 0 0 0 1 11 33 53 60 61 62 62 56 49
36 38 40 38 33 28 24 18 12 7 3 1 0 0 0 0 0 0 0 0 1 0 0 0 0 0 0 0 0 0 0 0 0 1 12 31 44 48 52 55 55 52 46
30 31 33 31 26 20 14 9 5 2 1 0 0 0 0 0 0 0 0 0 0 0 0 0 0 0 0 0 0 0 0 0 0 1 8 19 28 33 39 44 46 44 39
30 29 27 25 22 18 14 9 4 2 1 0 0 0 1 1 0 0 0 0 0 0 0 0 0 0 0 0 0 0 0 0 0 1 3 8 12 18 24 32 36 35 32
34 32 29 26 25 25 21 16 11 7 4 2 1 3 3 2 0 0 1 1 0 0 0 0 0 0 0 0 0 0 0 0 0 0 1 3 5 7 11 17 23 25 25
37 37 37 35 34 33 30 27 23 17 10 6 5 6 6 4 2 2 3 2 1 1 0 0 0 0 0 0 0 0 0 0 0 0 0 1 2 2 3 6 11 15 16
34 38 42 42 41 40 39 38 34 23 14 11 10 8 7 7 6 6 6 4 3 2 1 0 0 0 0 0 0 0 0 0 0 0 0 0 1 1 1 2 5 7 8
30 35 38 37 37 39 41 40 34 25 17 13 11 8 7 8 8 8 8 5 3 2 1 0 0 0 0 0 0 0 0 0 0 0 0 0 0 0 0 1 2 3 3
23 26 27 25 25 27 29 30 27 22 16 12 8 5 4 5 5 6 6 4 2 1 0 0 0 0 0 0 0 0 0 0 0 0 0 0 0 0 0 0 1 1 1
14 15 16 16 15 15 15 18 20 18 13 7 3 2 1 2 3 3 3 2 1 0 0 0 0 0 0 0 0 0 0 0 0 0 0 0 0 0 0 0 0 0 0
6 7 8 10 10 8 7 10 13 12 7 3 0 0 0 1 1 1 1 1 0 0 0 0 0 0 0 0 0 0 0 0 0 0 0 0 0 0 0 0 0 0 0
3 4 4 6 6 6 5 5 7 6 3 1 0 0 0 0 0 0 0 0 0 0 0 0 0 0 0 0 0 0 0 0 0 0 0 0 0 0 0 0 0 0 0
3 3 3 4 5 5 4 4 4 2 1 0 0 0 0 0 0 0 0 0 0 0 0 0 0 0 0 0 0 0 0 0 0 0 0 0 0 0 0 0 0 0 0

GEFSSE_con_prob3kmehi_084.txt.gz
EHI
32 35 33 27 29 51 80 95 98 99 97 93 89 85 77 66 53 41 31 21 11 6 5 8 10 11 14 16 14 12 12 11 8 6 5 4 3 4 5 6 6 5 5
51 47 40 33 32 51 78 94 97 98 96 92 88 85 80 71 58 45 32 20 11 7 6 7 7 8 9 10 9 7 7 7 6 5 4 3 3 4 5 6 7 7 7
70 61 49 41 42 58 81 95 97 97 94 89 84 82 79 71 59 46 32 20 12 9 7 6 6 7 6 6 5 4 3 4 5 4 3 3 3 4 5 7 8 10 11
77 69 56 50 53 68 86 96 96 93 88 82 77 74 71 65 55 42 29 19 13 10 8 7 7 7 6 4 4 4 3 4 4 4 3 3 4 6 8 9 11 13 14
76 72 64 61 63 72 86 92 90 84 77 71 68 67 64 58 48 35 24 17 12 9 7 7 7 7 5 4 4 3 3 3 3 3 3 3 4 7 11 13 14 14 14
72 71 72 74 73 74 81 85 82 75 68 62 60 60 56 48 37 25 17 12 9 7 7 6 7 6 5 4 4 3 3 3 1 1 3 3 4 8 13 17 18 17 15
71 73 77 81 80 76 78 81 78 73 66 61 58 55 49 37 26 18 12 9 6 5 5 5 5 5 5 5 4 4 3 3 1 1 3 3 5 9 15 20 22 21 19
75 78 81 81 79 75 77 80 80 76 71 65 59 50 39 27 18 13 10 7 5 3 3 3 3 4 4 4 4 3 3 3 2 2 3 4 7 13 20 25 25 22 21
80 83 84 79 75 73 76 80 82 79 74 66 54 40 27 17 11 8 7 5 4 3 2 3 3 3 3 3 3 3 4 3 3 2 2 4 11 20 28 31 28 23 21
80 85 87 82 77 74 73 77 80 77 70 59 45 31 20 13 8 5 4 4 3 3 3 3 3 3 3 3 4 4 4 4 3 2 2 5 14 25 34 37 32 25 22
78 82 85 84 81 77 74 76 78 74 65 54 42 31 22 14 8 5 4 3 3 3 3 3 3 3 3 4 4 4 4 3 3 2 2 6 14 23 32 37 33 26 24
74 76 76 76 77 78 78 81 83 77 66 54 43 33 23 14 9 7 5 3 4 4 5 4 3 3 3 3 4 3 3 3 3 3 4 8 13 19 26 32 31 27 26
67 67 66 68 71 74 78 85 87 80 67 52 40 31 20 12 9 7 6 4 5 7 7 5 2 2 3 3 3 3 3 3 3 3 5 8 12 16 22 27 28 27 26
56 55 56 61 65 67 73 81 82 74 60 44 33 27 19 11 8 7 6 6 6 7 7 4 1 1 3 3 3 3 3 3 4 4 5 7 10 13 18 22 25 24 22
45 43 45 51 56 60 65 72 72 60 45 34 26 22 16 9 6 6 6 6 5 5 4 2 0 1 2 3 3 3 3 3 4 4 4 6 10 14 17 19 21 20 17
35 33 36 41 47 52 55 57 53 41 29 23 19 15 11 6 4 4 4 4 4 2 1 0 0 0 1 2 2 2 1 1 1 2 2 4 9 14 16 17 18 16 13
33 31 32 35 38 41 39 34 28 22 17 13 11 10 7 5 3 3 3 3 3 1 0 0 0 0 0 1 1 1 0 0 0 0 0 2 6 9 11 13 15 13 9
35 32 30 30 30 29 24 17 13 11 8 6 5 4 4 3 3 3 3 3 2 1 0 0 0 0 0 0 0 0 0 0 0 0 0 0 2 3 4 7 9 9 7
32 31 28 26 24 21 16 11 8 5 3 2 1 1 1 1 1 2 2 1 1 0 0 0 0 0 0 0 0 0 0 0 0 0 0 0 0 0 1 3 5 5 4
26 25 25 23 20 17 13 9 6 2 0 0 0 0 0 0 0 1 1 0 0 0 0 0 0 0 0 0 0 0 0 0 0 0 0 0 0 1 2 3 3 3 2
20 20 20 18 15 13 12 9 4 1 0 0 0 0 0 0 0 0 0 0 0 0 0 0 0 0 0 0 0 0 0 0 0 0 0 0 0 1 2 2 2 2 2
14 14 14 12 9 9 10 7 4 2 1 0 0 0 0 0 0 0 0 0 0 0 0 0 0 0 0 0 0 0 0 0 0 0 0 0 0 0 1 1 1 1 1
11 10 9 8 7 7 7 4 3 3 2 0 0 0 1 0 0 0 0 0 0 0 0 0 0 0 0 0 0 0 0 0 0 0 0 0 0 0 0 0 0 0 0
9 8 7 7 7 6 5 3 1 2 1 0 0 0 0 0 0 0 0 0 0 0 0 0 0 0 0 0 0 0 0 0 0 0 0 0 0 0 0 0 0 0 0
6 6 6 6 6 5 3 1 0 0 0 0 0 0 0 0 0 0 0 0 0 0 0 0 0 0 0 0 0 0 0 0 0 0 0 0 0 0 0 0 0 0 0
4 4 5 6 5 3 1 0 0 0 0 0 0 0 0 0 0 0 0 0 0 0 0 0 0 0 0 0 0 0 0 0 0 0 0 0 0 0 0 0 0 0 0

GEFSSE_con_prob3kmehi_090.txt.gz
EHI
26 46 61 57 49 43 37 36 40 43 39 29 22 22 19 15 13 13 15 15 12 8 7 11 18 24 24 16 9 8 7 5 3 1 0 0 1 1 0 0 1 2 3
37 53 66 66 61 56 51 51 57 61 57 47 38 34 29 24 20 19 20 18 14 11 10 13 19 23 22 15 8 6 5 3 2 0 0 0 1 1 0 1 2 2 2
56 60 67 75 77 75 71 71 76 79 76 68 60 52 45 38 31 27 24 20 16 13 12 15 17 19 18 11 5 3 2 1 0 0 0 0 1 1 0 1 2 1 1
66 63 65 77 87 88 86 84 84 85 82 78 72 66 60 53 46 35 25 20 16 13 12 12 12 12 10 6 3 1 0 0 0 0 0 0 0 0 0 1 1 1 0
61 60 66 79 90 93 92 89 88 86 83 79 75 73 70 66 56 42 27 19 15 14 12 11 9 8 6 4 3 1 0 0 0 0 0 1 1 1 0 0 0 0 0
54 56 67 81 89 93 93 91 89 87 82 79 78 77 75 71 60 44 29 19 15 14 13 10 8 7 6 5 3 1 0 0 0 0 0 1 3 4 2 0 0 0 0
52 56 69 82 88 90 90 89 89 87 84 82 82 81 79 74 63 47 32 23 16 14 13 10 7 7 6 5 3 1 0 0 1 0 0 2 6 7 3 0 0 0 0
51 56 69 78 81 83 85 86 87 86 85 85 86 85 82 77 66 50 35 26 18 13 11 9 7 6 5 3 2 1 0 0 0 0 0 2 7 7 3 1 1 0 0
47 54 63 66 67 70 74 78 81 82 82 85 87 85 80 73 61 44 31 25 19 13 10 8 6 5 3 1 1 0 0 0 0 0 0 2 5 4 2 2 2 2 1
47 52 55 54 52 51 54 64 70 74 78 81 82 77 66 53 41 28 22 22 18 12 9 7 5 4 2 1 0 0 0 0 0 0 0 2 4 2 1 2 4 5 5
54 55 54 52 46 38 41 54 59 61 63 62 61 56 41 26 18 14 19 24 18 11 8 6 4 2 1 0 0 0 0 0 0 0 1 4 4 2 0 2 5 7 8
64 62 59 57 50 42 45 55 55 50 47 41 40 39 30 22 14 12 21 24 17 10 7 5 3 1 0 0 0 0 0 0 0 0 2 5 4 1 1 3 6 7 8
65 62 59 59 56 52 54 60 59 55 49 42 42 45 43 37 27 21 21 20 15 10 6 4 2 0 0 0 0 0 0 0 0 1 3 5 4 1 2 5 8 8 6
61 56 53 55 57 58 61 64 64 62 57 55 57 57 53 47 38 29 22 16 13 10 6 3 1 0 0 0 0 0 0 0 1 3 5 4 3 2 5 9 11 10 8
60 54 50 52 58 63 66 66 63 60 56 59 60 54 48 45 40 33 25 19 13 11 10 7 3 1 1 0 0 1 1 1 1 3 5 5 4 5 8 12 15 15 14
56 53 50 53 59 65 66 63 59 54 54 57 57 48 39 38 38 32 26 21 16 15 16 12 8 5 3 1 0 1 1 1 2 3 3 4 5 6 8 12 15 16 16
51 49 49 52 58 63 63 60 55 52 52 53 53 48 40 36 35 30 25 22 21 21 22 18 13 9 6 3 1 1 2 2 2 1 1 2 3 3 5 9 12 12 11
50 48 48 52 56 59 58 54 50 48 49 49 49 47 42 35 31 30 28 28 27 25 22 19 16 12 8 5 3 3 3 3 1 0 0 1 1 1 2 4 6 6 5
48 47 49 52 52 51 49 47 43 41 41 42 41 39 38 34 30 30 33 34 30 24 19 16 15 11 7 4 3 3 3 2 1 1 1 1 1 2 2 2 3 3 2
39 41 44 46 45 41 41 41 38 34 31 28 27 27 29 29 27 26 29 32 29 22 17 15 13 9 5 3 1 1 2 2 1 1 2 2 2 3 3 3 3 3 2
30 31 34 35 35 35 37 40 38 31 22 17 16 17 19 19 18 18 21 25 24 19 17 15 11 6 3 1 0 1 2 3 1 1 3 4 4 3 3 3 3 2 2
24 24 25 26 27 30 34 37 34 25 15 11 10 11 11 10 10 11 13 15 15 15 14 11 8 4 1 1 0 1 2 2 2 2 3 4 2 1 1 1 1 1 2
20 21 21 21 22 23 25 27 24 17 11 8 7 6 5 5 5 7 8 8 8 8 7 6 4 2 1 0 0 0 1 1 2 2 2 1 0 0 0 0 0 0 1
15 16 17 18 17 15 16 18 17 13 9 6 4 2 1 1 1 3 5 5 4 3 3 2 1 1 0 0 0 0 0 0 1 1 0 0 0 0 0 0 0 0 0
11 13 13 14 13 11 12 14 15 11 7 3 2 0 0 0 0 1 3 2 1 1 1 1 1 0 0 0 0 0 0 0 0 0 0 0 0 0 0 0 0 0 0
10 12 12 11 10 9 10 13 14 9 4 1 0 0 0 0 0 0 1 0 0 0 1 1 1 0 0 0 0 0 0 0 0 0 0 0 0 0 0 0 0 0 0

GEFSSE_con_prob3kmehi_096.txt.gz
EHI
83 81 80 71 51 31 18 9 4 2 1 2 3 2 2 4 10 17 22 23 21 16 8 3 2 2 1 2 2 2 3 6 8 13 20 24 23 18 11 6 3 1 0
89 85 82 74 56 38 22 12 7 4 3 3 3 3 2 5 9 12 15 16 17 13 6 3 3 3 1 1 1 1 1 2 4 6 9 10 11 10 9 9 9 5 2
93 88 82 77 66 50 34 20 12 7 4 3 4 4 5 6 8 9 9 11 12 10 5 3 4 3 1 0 0 0 0 0 1 1 1 0 1 3 5 10 13 9 3
94 88 83 82 75 63 49 34 21 13 8 6 7 9 10 10 10 10 9 8 8 7 5 3 3 3 1 0 0 0 0 0 0 0 0 1 1 1 3 6 8 5 2
91 87 88 87 80 71 61 48 34 25 19 18 18 18 18 17 15 12 8 5 4 3 3 3 4 3 1 0 0 0 0 0 1 1 2 2 2 2 3 3 2 1 0
79 80 85 88 83 75 69 60 50 42 35 34 32 30 28 25 21 15 9 5 3 1 1 3 5 4 2 0 0 0 0 1 2 3 4 6 6 5 4 2 1 0 0
63 70 78 85 84 78 74 70 66 60 53 49 46 43 39 34 27 19 11 6 4 2 2 3 4 4 3 1 0 0 0 2 5 5 9 14 13 8 5 2 0 0 0
56 65 74 79 82 80 78 78 77 74 69 65 60 56 50 42 31 22 15 10 6 4 3 3 3 3 2 1 0 0 0 3 4 5 11 19 17 11 7 2 0 0 0
58 66 70 71 75 76 78 83 84 81 78 77 72 64 54 41 30 23 20 14 8 5 3 3 3 2 1 0 0 0 0 1 2 3 9 17 18 13 8 3 1 0 0
65 67 64 62 65 66 69 78 85 85 82 76 68 59 47 31 20 17 16 14 8 3 2 2 2 1 0 0 0 0 0 0 1 3 11 20 22 17 9 3 1 1 1
70 66 55 51 53 50 55 69 77 77 73 64 53 44 33 18 10 8 10 11 6 2 1 2 1 0 0 0 0 0 0 0 0 7 21 33 32 22 13 6 3 2 1
72 64 50 45 43 39 49 66 67 61 57 46 37 31 20 10 6 8 15 17 10 4 3 2 1 0 0 0 0 0 0 0 1 9 29 44 40 27 17 9 4 3 2
72 64 51 47 44 42 54 66 59 51 45 36 30 26 17 10 11 18 26 25 15 6 3 3 2 1 0 0 0 0 0 1 3 10 27 41 38 26 17 11 6 4 4
73 67 59 55 53 54 64 66 55 50 45 37 35 32 23 17 20 27 31 26 15 5 2 3 3 2 1 1 1 1 2 3 5 10 19 29 30 22 15 10 7 6 5
73 70 65 65 64 66 71 67 56 55 51 46 47 43 30 25 26 30 31 25 15 8 6 5 5 6 7 7 6 7 7 7 8 9 11 17 19 17 14 10 9 8 7
72 69 65 64 66 71 74 69 60 58 57 54 54 48 35 29 31 32 33 31 25 21 19 14 13 16 16 14 13 14 14 14 13 10 7 8 10 11 11 12 11 9 8
67 65 59 57 62 68 71 67 59 56 54 53 51 45 35 31 33 36 37 36 33 34 35 30 27 28 24 19 17 15 15 15 14 11 7 6 7 7 7 8 9 9 8
60 59 56 57 61 65 65 59 52 49 47 45 42 38 33 30 32 37 37 35 35 38 39 36 33 32 26 20 15 11 10 10 8 7 6 7 7 6 4 4 5 7 8
56 57 58 61 63 60 54 46 38 35 34 33 31 30 28 27 28 30 31 30 31 32 31 29 28 26 20 15 9 6 5 5 5 5 6 7 7 5 3 2 2 5 7
54 54 55 58 57 51 42 34 27 22 22 22 23 22 22 22 22 22 23 25 25 23 22 22 19 16 12 8 4 3 3 4 5 7 7 7 6 4 2 2 2 3 3
49 48 48 48 47 42 36 30 25 20 17 17 17 16 16 16 16 16 18 20 21 21 20 19 14 9 6 4 2 1 2 3 4 6 6 4 3 1 1 1 1 1 1
37 38 39 39 38 36 33 31 28 23 18 14 13 12 10 10 12 12 14 15 18 19 19 17 12 6 3 2 1 1 1 1 1 2 3 2 1 1 0 0 0 0 0
26 27 31 32 32 31 31 30 28 24 16 11 9 7 6 7 8 9 9 10 12 13 13 11 8 4 1 1 1 0 0 0 0 0 1 1 1 1 0 0 0 0 0
20 21 24 26 27 28 29 27 25 21 14 8 6 4 3 4 5 6 7 7 7 6 6 5 3 1 0 0 0 0 0 0 0 0 0 0 0 0 0 0 0 0 0
18 18 19 20 22 23 23 22 18 15 11 7 4 3 2 1 2 3 4 4 4 3 3 2 1 0 0 0 0 0 0 0 0 0 0 0 0 0 0 0 0 0 0
18 16 15 16 18 18 19 17 12 9 8 6 3 2 1 0 0 1 2 2 1 1 1 1 1 0 0 0 0 0 0 0 0 0 0 0 0 0 0 0 0 0 0

GEFSSE_con_prob3kmehi_102.txt.gz
EHI
8 19 34 40 39 37 37 35 32 29 25 25 29 35 43 50 53 50 45 39 31 20 12 7 5 2 1 0 0 1 3 3 2 2 4 6 6 4 4 3 1 0 0
19 27 40 47 45 40 36 32 27 24 22 22 25 31 37 43 46 45 42 36 26 16 8 5 5 3 1 0 0 0 1 1 2 3 5 6 6 4 4 3 1 0 0
40 40 46 54 54 48 41 32 22 17 17 17 18 21 26 30 32 32 31 26 17 9 5 3 3 2 1 0 0 0 0 1 2 3 3 3 3 4 4 2 1 0 0
57 51 51 59 62 57 49 36 23 15 12 11 10 11 15 18 19 18 17 13 8 5 3 2 1 1 0 0 0 0 0 1 2 2 1 0 1 3 3 1 0 0 0
64 58 57 64 66 61 54 42 27 17 11 8 7 7 7 8 9 8 6 4 2 2 2 1 0 0 1 1 1 0 0 0 1 0 0 0 1 4 4 2 1 0 0
67 64 64 69 69 65 57 45 32 22 14 9 6 5 4 3 3 2 1 0 0 1 1 0 0 0 1 2 1 0 0 0 0 0 0 0 1 4 5 3 1 0 0
71 70 70 72 72 69 62 51 41 30 20 12 8 5 2 1 1 0 0 0 0 0 0 0 0 0 1 1 1 0 0 0 0 0 0 0 1 4 5 4 2 1 0
78 76 72 69 69 70 68 61 52 41 30 21 16 11 5 3 2 1 0 0 0 0 0 0 0 0 0 0 0 0 0 0 0 0 0 0 2 6 6 3 2 2 1
83 79 71 63 61 66 68 66 60 51 42 34 27 19 11 5 3 2 1 0 0 0 0 0 0 0 0 0 0 1 1 0 0 0 0 0 3 8 7 4 3 2 2
79 76 71 63 59 61 62 60 58 54 47 41 34 25 15 8 4 3 1 0 0 0 0 0 0 0 0 0 1 2 2 1 0 0 0 0 3 6 7 4 3 2 1
71 70 69 66 61 60 57 52 52 51 46 41 34 26 18 11 6 3 1 0 0 0 0 0 0 0 0 0 1 2 2 1 0 0 0 1 3 5 5 3 1 1 1
66 63 62 61 59 58 55 52 50 48 43 39 33 25 17 11 6 2 0 0 0 0 0 0 0 0 0 0 1 1 1 1 1 0 1 3 5 6 6 5 3 2 1
62 56 51 52 52 52 55 56 52 46 40 34 29 22 14 8 4 2 0 0 1 0 0 0 0 0 0 0 0 0 0 1 1 0 2 5 7 8 10 8 6 4 3
58 48 41 41 42 45 52 55 50 43 36 27 21 16 11 5 3 1 0 0 1 1 0 0 0 0 0 0 0 0 0 1 0 0 3 7 9 10 11 9 6 5 4
51 45 38 32 31 36 44 45 41 36 30 21 14 10 6 2 1 0 0 0 0 1 0 0 0 0 0 0 0 0 0 0 0 2 6 12 13 11 11 10 8 7 6
43 41 37 31 28 30 34 33 29 25 21 14 8 4 2 0 0 0 0 0 0 1 1 0 0 0 0 0 0 0 0 0 0 3 7 12 13 13 13 15 15 13 11
33 32 32 30 28 28 28 26 21 18 14 8 4 1 0 0 0 0 0 0 0 1 1 1 0 0 0 0 0 0 0 0 0 1 3 5 7 10 14 17 17 16 14
25 23 23 25 26 25 24 20 17 14 10 6 3 1 0 0 0 1 1 0 0 1 1 1 0 0 0 0 0 0 0 0 0 0 0 1 3 6 10 12 11 11 12
22 20 18 19 21 21 18 14 12 11 8 5 3 3 1 0 0 1 2 1 1 1 1 0 0 0 0 0 0 0 0 0 0 0 0 1 2 3 4 4 4 4 5
20 18 15 14 16 15 12 9 7 7 6 4 4 5 3 2 1 2 2 2 2 2 1 0 0 0 0 0 0 0 0 0 0 0 0 0 1 1 1 1 0 0 0
18 15 12 11 12 10 8 6 4 4 5 4 4 5 4 4 4 3 3 3 3 2 1 0 0 0 0 0 0 0 0 0 0 0 0 0 0 0 0 0 0 0 0
17 14 11 10 9 8 7 5 4 4 5 5 4 4 4 5 5 5 4 2 1 1 0 0 0 0 0 0 0 0 0 0 0 0 0 0 0 0 0 0 0 0 0
14 12 10 9 8 7 7 5 4 5 6 5 4 3 3 4 4 4 3 1 0 0 0 0 0 0 0 0 0 0 0 0 0 0 0 0 0 0 0 0 0 0 0
10 9 8 7 7 7 7 6 5 5 5 4 3 3 3 3 3 3 2 1 0 0 0 0 0 0 0 0 0 0 0 0 0 0 0 0 0 0 0 0 0 0 0
7 6 5 5 5 5 5 5 4 4 4 3 3 3 3 2 2 2 2 1 0 0 0 0 0 0 0 0 0 0 0 0 0 0 0 0 0 0 0 0 0 0 0
6 5 4 4 4 3 3 3 3 3 3 3 3 3 2 1 1 1 1 0 0 0 0 0 0 0 0 0 0 0 0 0 0 0 0 0 0 0 0 0 0 0 0

GEFSSE_con_prob3kmehi_108.txt.gz
EHI
28 43 56 52 45 49 64 81 91 94 93 91 88 83 74 59 43 29 18 11 9 7 6 6 6 3 1 1 1 1 0 0 0 0 0 0 0 0 0 0 0 0 0
41 50 58 56 51 53 63 75 86 91 92 91 88 85 77 65 52 40 27 18 12 9 8 6 4 2 1 1 1 0 0 0 0 0 0 0 0 0 0 0 0 0 0
61 60 59 58 56 56 61 68 77 84 88 88 86 83 77 69 60 50 37 25 17 13 10 6 3 2 2 1 0 0 0 0 0 0 0 0 0 0 0 0 0 0 0
73 67 62 61 60 59 61 65 70 75 79 79 78 75 71 67 61 52 40 28 20 15 10 6 4 3 3 2 1 0 0 0 0 0 0 0 0 0 0 0 0 0 0
79 73 69 69 66 62 63 64 65 66 66 66 66 64 61 59 55 48 37 27 21 15 10 8 7 5 3 2 1 0 0 0 1 0 0 0 0 0 0 0 0 0 0
81 76 74 76 71 65 64 64 63 60 58 56 54 51 49 49 47 41 33 25 18 13 11 12 11 7 4 3 2 1 0 0 0 0 0 0 0 0 0 0 0 0 0
79 75 74 77 75 69 66 64 61 59 56 52 47 43 41 41 40 35 29 22 15 10 8 10 11 9 7 5 4 2 1 0 0 0 0 0 0 0 0 0 0 0 0
75 73 71 72 74 72 68 65 62 58 54 50 45 40 38 37 34 29 24 18 12 6 3 4 7 8 8 7 6 3 1 0 0 0 0 0 0 0 0 0 0 0 0
73 71 67 64 64 68 69 67 63 57 50 46 42 37 33 31 27 22 18 13 8 3 0 1 2 4 5 6 6 3 1 0 0 0 0 0 0 0 0 0 0 0 0
68 68 65 60 57 60 64 65 62 56 49 42 37 33 28 25 22 17 14 10 5 2 0 0 1 2 3 4 5 2 0 0 0 0 0 0 0 0 0 1 0 0 0
62 62 62 60 58 57 58 59 59 56 50 43 37 32 26 23 20 16 10 7 5 3 1 0 1 2 3 4 4 2 0 0 0 0 0 0 0 0 0 1 0 0 0
56 55 55 58 60 58 55 56 58 56 51 46 40 35 28 22 19 15 9 6 5 4 3 2 2 3 4 5 3 1 0 0 0 0 0 0 0 0 0 1 0 0 0
51 50 51 55 59 57 55 56 58 55 49 45 41 35 27 19 15 13 10 8 8 7 4 3 4 5 5 4 3 1 0 0 0 0 0 1 0 0 0 0 0 0 0
45 45 47 51 53 52 54 56 57 52 45 40 35 30 23 17 13 11 11 11 10 8 6 4 4 5 4 3 2 1 0 0 0 0 0 1 1 1 1 1 1 0 0
36 38 42 45 46 47 50 52 51 46 39 32 26 22 18 13 9 9 9 10 9 8 7 5 4 3 2 2 2 1 0 0 0 0 2 3 3 3 3 2 1 0 0
31 33 36 38 38 39 41 43 40 35 30 25 19 15 13 9 6 6 6 6 6 5 5 5 4 2 1 1 1 0 0 0 0 2 5 8 10 8 6 4 2 1 1
29 29 30 31 30 30 31 32 29 24 20 18 14 10 8 7 5 3 3 3 2 2 2 2 2 1 0 0 0 0 0 0 0 2 6 10 13 11 9 8 5 2 3
25 24 23 23 22 21 21 21 19 15 13 12 8 4 3 4 4 3 2 1 0 0 0 0 1 1 0 0 0 0 0 0 0 1 3 5 7 9 10 10 7 5 5
19 17 15 14 13 12 13 14 13 11 9 6 3 1 1 4 5 4 2 0 0 0 0 0 1 1 0 0 0 0 0 0 0 0 0 0 1 4 6 7 6 5 6
13 12 10 8 8 8 10 10 9 7 5 3 1 0 1 4 6 6 4 1 0 0 0 0 0 0 0 0 0 0 0 0 0 0 0 0 0 1 2 2 3 3 2
9 8 8 7 7 7 8 7 6 5 3 1 0 0 0 2 5 6 5 2 1 2 1 0 0 0 0 0 0 0 0 0 0 0 0 0 0 0 0 0 0 0 0
5 6 6 5 5 5 5 4 3 3 1 0 0 0 0 1 3 4 4 3 2 2 1 0 0 0 0 0 0 0 0 0 0 0 0 0 0 0 0 0 0 0 0
3 3 3 3 3 3 3 3 2 1 0 0 0 1 1 1 2 3 2 3 2 1 1 0 0 0 0 0 0 0 0 0 0 0 0 0 0 0 0 0 0 0 0
1 1 1 1 1 1 1 2 2 1 0 0 0 1 1 1 1 2 3 2 1 0 0 0 0 0 0 0 0 0 0 0 0 0 0 0 0 0 0 0 0 0 0
1 0 0 0 0 0 0 1 1 1 0 0 0 1 1 0 1 2 3 2 1 0 0 0 0 0 0 0 0 0 0 0 0 0 0 0 0 0 0 0 0 0 0
1 1 0 0 0 0 0 0 0 0 0 0 0 0 0 0 1 2 3 2 1 0 0 0 0 0 0 0 0 0 0 0 0 0 0 0 0 0 0 0 0 0 0

GEFSSE_con_prob3kmehi_114.txt.gz
EHI
31 37 37 27 24 23 27 34 39 41 38 31 24 20 18 14 11 9 9 8 8 6 7 8 7 4 1 1 1 2 2 1 0 0 0 0 0 0 0 0 0 0 0
40 43 40 33 30 29 35 45 51 52 50 46 42 37 33 27 21 18 16 14 12 9 10 12 10 6 2 2 3 3 3 2 1 0 0 0 0 0 0 0 0 0 0
48 46 41 38 39 40 49 58 64 65 66 66 65 62 56 48 39 34 29 24 19 15 14 13 12 9 5 3 4 4 3 3 2 1 0 0 0 0 0 0 0 0 0
47 44 42 43 45 48 58 66 71 73 75 79 82 80 72 63 56 48 39 30 24 19 14 10 9 9 7 6 5 3 2 2 2 1 0 0 0 0 0 0 0 0 0
40 40 45 48 47 51 60 69 75 78 81 85 87 85 78 69 64 57 44 31 22 16 11 7 6 7 8 8 7 4 2 1 1 0 0 0 1 1 0 0 0 0 0
32 34 42 48 49 53 60 70 76 79 82 83 83 82 77 71 65 58 45 29 18 12 7 5 5 6 9 11 9 5 2 1 0 0 0 1 1 2 1 0 0 0 0
27 31 37 43 47 53 61 69 75 78 79 79 79 76 73 67 62 55 43 30 20 13 9 7 8 10 12 12 9 6 3 1 1 0 0 1 1 2 2 1 0 0 0
26 31 34 33 36 45 57 67 75 79 78 77 76 73 66 60 56 50 41 32 24 17 12 11 13 14 12 9 6 4 2 1 0 0 0 1 1 2 2 1 0 0 0
27 31 31 26 26 33 46 59 70 76 77 76 74 69 62 54 48 43 36 30 25 20 14 12 12 12 10 7 4 3 1 0 0 0 0 1 2 1 1 1 0 0 0
28 31 31 27 24 26 34 45 57 65 70 71 68 62 53 43 34 29 28 27 25 19 14 11 10 10 9 6 3 3 1 0 0 0 0 1 2 1 0 0 1 1 0
31 32 33 33 30 27 31 39 45 49 53 55 54 48 38 27 19 17 23 29 24 17 13 11 11 9 7 5 3 3 2 0 0 0 0 2 2 1 1 2 3 3 2
35 34 35 37 35 31 35 41 41 40 41 39 38 35 29 24 17 15 24 29 22 14 11 12 12 8 5 4 3 2 1 0 0 0 2 4 4 2 2 4 5 5 5
37 35 36 39 38 35 37 40 39 40 40 36 34 34 34 33 28 25 28 28 22 15 12 14 13 7 4 3 3 1 0 0 0 2 5 6 5 3 2 3 4 5 6
35 34 37 44 46 44 41 38 37 39 39 36 34 34 35 35 34 35 35 32 29 25 23 24 21 13 7 5 4 2 0 0 1 5 8 6 4 3 1 1 1 3 3
32 33 39 48 53 53 49 42 37 37 35 32 30 28 27 29 34 38 39 39 36 35 35 34 32 24 15 11 8 4 0 1 3 7 7 5 3 3 3 2 1 1 2
31 33 38 45 51 52 47 41 38 38 36 32 27 25 25 27 31 33 35 38 38 37 36 35 35 31 23 17 12 6 1 1 3 5 5 3 2 5 6 5 3 2 2
31 32 33 36 40 42 39 33 32 36 37 33 28 25 24 25 27 27 28 31 32 31 31 31 32 31 26 20 16 9 4 3 4 5 5 5 5 6 9 8 6 4 2
27 27 27 26 28 33 34 29 28 32 32 28 25 22 20 21 23 24 24 24 24 25 25 25 27 28 25 20 17 13 9 7 7 7 8 10 9 8 9 9 8 5 3
19 19 19 19 20 24 26 27 27 28 26 22 19 17 16 16 17 18 18 17 18 20 20 19 21 23 22 18 14 12 11 10 9 8 9 11 12 11 10 10 8 6 4
15 16 17 18 18 17 18 21 22 22 20 17 15 12 12 11 9 9 10 11 14 16 16 16 16 17 17 14 8 6 8 7 6 6 6 7 9 9 10 9 8 6 4
14 15 18 19 17 15 14 14 15 14 13 12 9 6 5 4 3 3 5 8 11 14 14 14 13 12 12 10 6 3 3 3 2 2 2 2 3 6 6 6 6 5 2
11 11 14 15 14 13 13 12 10 8 7 6 4 2 1 1 1 1 4 7 10 11 11 10 9 7 7 7 5 2 1 0 0 0 0 0 1 2 3 3 3 2 1
5 5 7 9 11 11 10 9 8 6 4 4 2 1 0 0 0 1 3 6 9 10 9 7 6 5 4 5 4 2 0 0 0 0 0 0 0 1 1 1 1 1 0
2 3 4 6 8 8 7 6 6 6 5 4 3 1 1 0 0 1 3 5 7 8 7 6 6 5 3 2 2 2 0 0 0 0 0 0 0 0 0 0 0 0 0
2 3 3 5 6 6 5 5 5 5 4 4 2 1 0 0 0 1 2 3 4 6 6 5 5 5 3 1 1 1 0 0 0 0 0 0 0 0 0 0 0 0 0
3 3 3 4 5 6 5 6 6 5 3 2 1 0 0 0 0 1 1 1 2 5 5 4 4 4 3 2 1 0 0 0 0 0 0 0 0 0 0 0 0 0 0

GEFSSE_con_prob3kmehi_120.txt.gz
EHI
54 51 49 36 17 8 4 2 1 0 0 0 0 0 1 3 8 13 16 16 10 4 1 0 0 0 1 3 3 2 2 2 4 7 11 12 9 8 8 7 4 1 0
62 56 52 38 20 10 5 2 0 0 0 0 0 0 0 2 5 9 13 13 8 3 1 0 0 1 2 3 3 2 1 2 3 4 6 6 6 6 8 10 8 4 1
61 53 47 39 24 12 6 3 1 0 0 0 0 0 0 1 3 6 9 10 7 5 3 2 1 2 2 2 1 1 0 1 1 1 1 1 2 2 5 9 9 4 2
47 43 42 40 29 16 9 6 3 1 0 0 0 0 1 3 5 7 9 8 7 7 6 4 2 1 1 1 1 0 0 0 0 0 0 1 1 1 2 3 3 2 1
38 39 43 43 34 22 14 10 6 3 1 1 1 0 2 6 8 9 9 7 6 7 6 4 1 0 0 0 0 0 0 0 0 0 1 3 5 4 2 1 0 0 0
40 39 41 44 37 26 21 16 10 7 7 7 6 6 9 13 14 11 8 6 5 4 3 2 1 0 0 0 0 0 0 0 0 0 4 9 11 10 5 1 0 0 0
44 39 40 45 40 30 26 23 20 19 20 21 20 20 22 25 23 15 8 5 3 1 1 1 1 0 0 0 0 0 0 1 2 2 9 18 20 15 8 1 0 0 0
46 39 37 41 39 35 32 32 34 36 38 39 38 35 33 32 28 21 12 6 2 1 1 1 1 1 0 0 0 0 0 2 4 4 11 23 27 20 11 3 0 0 0
41 32 26 27 29 31 34 38 44 50 53 52 49 45 40 33 28 22 16 10 5 3 2 2 2 1 1 0 0 0 0 1 3 3 9 23 30 26 16 7 2 0 0
35 26 17 15 17 17 22 33 43 49 53 53 49 48 42 31 22 18 16 15 11 6 4 2 1 2 2 1 0 0 0 0 1 3 11 24 34 31 21 12 5 1 0
37 27 17 15 14 11 13 26 35 37 40 43 44 43 37 25 17 14 18 22 18 10 6 3 2 3 2 1 1 1 0 0 1 6 16 30 38 35 24 15 7 2 0
43 32 24 23 21 19 20 27 30 29 31 34 35 35 28 20 17 20 29 35 27 14 8 5 3 2 2 1 1 1 1 1 3 8 20 34 41 37 29 19 9 2 0
45 38 34 34 32 33 34 31 30 30 29 29 29 27 22 19 21 29 40 43 33 18 10 7 5 2 1 2 2 2 1 1 3 8 22 35 39 35 29 20 9 2 1
43 41 42 45 46 48 47 40 36 36 32 29 29 26 22 22 25 33 41 40 30 19 12 9 6 3 3 3 3 2 1 2 4 10 23 34 34 28 23 17 9 3 3
44 44 48 55 58 60 59 53 47 43 37 34 33 30 27 28 30 35 39 36 26 19 15 10 7 7 7 5 5 5 5 6 8 13 20 26 26 22 19 16 11 6 4
49 49 53 60 64 64 63 59 53 47 41 39 38 35 34 35 35 38 39 34 27 23 20 14 11 13 13 10 11 14 15 14 13 15 18 17 16 16 16 16 14 10 7
53 54 55 57 59 60 58 55 51 47 44 43 42 39 37 36 37 37 35 31 27 26 23 17 13 16 16 14 15 20 23 21 18 19 19 16 11 9 10 13 16 14 10
54 55 54 51 54 54 51 47 46 45 44 44 42 39 34 32 33 33 32 29 26 24 20 15 13 14 14 13 14 18 21 21 20 20 19 15 10 6 6 10 15 15 12
50 51 50 49 50 50 47 44 44 43 43 42 39 33 28 26 27 29 30 28 24 21 17 13 12 11 9 8 9 12 14 15 15 16 15 12 9 7 5 7 11 12 10
43 42 42 43 46 47 47 46 44 41 42 40 34 28 24 23 24 26 27 26 22 19 16 14 12 10 8 6 5 6 7 8 9 9 9 9 9 8 5 3 5 6 7
35 34 33 36 40 44 46 47 43 39 38 35 29 25 23 23 22 20 21 22 20 17 15 14 12 10 8 6 4 3 3 3 4 4 4 5 6 6 4 2 2 3 3
28 27 28 31 35 39 41 41 39 35 31 27 24 21 21 20 16 14 16 17 16 16 13 11 10 9 7 5 3 2 2 1 1 1 1 2 3 3 2 1 1 2 1
21 22 24 26 29 32 33 33 34 32 26 22 19 17 17 13 10 11 11 10 11 11 11 10 10 9 6 3 1 1 1 0 0 0 0 0 1 1 1 0 1 1 0
15 16 17 19 22 25 27 29 30 29 24 19 17 16 13 9 7 7 6 5 5 6 7 9 9 8 5 2 1 1 1 1 0 0 0 0 0 0 0 0 0 0 0
9 9 10 12 15 17 20 24 24 22 18 15 14 14 11 7 5 4 3 3 3 4 5 6 7 7 5 3 2 2 2 1 0 0 0 0 0 0 0 0 0 0 0
5 6 7 8 10 12 16 18 18 16 14 13 12 11 9 6 4 2 3 3 3 3 4 5 6 6 5 4 4 3 2 1 0 0 0 0 0 0 0 0 0 0 0